Wetterdaten: Sonntag, 21.11.2021
Datum Zeit Temp. Aussen Temp. o. S. Temp +5cm Feuchte Auss Luftdruck Regen Sonnenschein Regendauer Solar Windben Empfang
21.11.2021 00:00 8,0 C 7,2 C 5,0 C 89 % 1016,5 hPa 0,0 l/m 0 min 0 min 0 W/m 9,7 km/h (2 Bft) 95,74 %
21.11.2021 00:02 8,0 C 7,2 C 5,0 C 89 % 1016,4 hPa 0,0 l/m 0 min 0 min 0 W/m 12,9 km/h (3 Bft) 92,50 %
21.11.2021 00:04 8,0 C 7,2 C 5,0 C 89 % 1016,4 hPa 0,0 l/m 0 min 0 min 0 W/m 12,9 km/h (3 Bft) 95,74 %
21.11.2021 00:08 8,0 C 7,2 C 5,0 C 89 % 1016,3 hPa 0,0 l/m 0 min 0 min 0 W/m 16,1 km/h (3 Bft) 92,55 %
21.11.2021 00:10 8,0 C 7,2 C 5,0 C 89 % 1016,3 hPa 0,0 l/m 0 min 0 min 0 W/m 16,1 km/h (3 Bft) 95,74 %
21.11.2021 00:12 8,0 C 7,2 C 5,0 C 89 % 1016,3 hPa 0,0 l/m 0 min 0 min 0 W/m 16,1 km/h (3 Bft) 95,65 %
21.11.2021 00:14 8,0 C 7,2 C 5,0 C 89 % 1016,3 hPa 0,0 l/m 0 min 0 min 0 W/m 19,3 km/h (3 Bft) 93,62 %
21.11.2021 00:16 7,9 C 7,2 C 5,0 C 89 % 1016,3 hPa 0,0 l/m 0 min 0 min 0 W/m 6,4 km/h (2 Bft) 95,74 %
21.11.2021 00:18 8,0 C 7,2 C 5,0 C 89 % 1016,3 hPa 0,0 l/m 0 min 0 min 0 W/m 9,7 km/h (2 Bft) 95,74 %
21.11.2021 00:20 8,0 C 7,2 C 5,0 C 89 % 1016,3 hPa 0,0 l/m 0 min 0 min 0 W/m 6,4 km/h (2 Bft) 95,74 %
21.11.2021 00:22 7,9 C 7,2 C 5,0 C 89 % 1016,2 hPa 0,0 l/m 0 min 0 min 0 W/m 19,3 km/h (3 Bft) 91,49 %
21.11.2021 00:24 7,9 C 7,2 C 5,0 C 89 % 1016,2 hPa 0,0 l/m 0 min 0 min 0 W/m 12,9 km/h (3 Bft) 97,83 %
21.11.2021 00:26 7,9 C 7,2 C 5,0 C 89 % 1016,2 hPa 0,0 l/m 0 min 0 min 0 W/m 16,1 km/h (3 Bft) 95,74 %
21.11.2021 00:28 7,9 C 7,2 C 5,0 C 89 % 1016,2 hPa 0,0 l/m 0 min 0 min 0 W/m 9,7 km/h (2 Bft) 95,74 %
21.11.2021 00:30 7,9 C 7,2 C 5,0 C 89 % 1016,1 hPa 0,0 l/m 0 min 0 min 0 W/m 9,7 km/h (2 Bft) 97,87 %
21.11.2021 00:32 7,9 C 7,2 C 5,0 C 90 % 1016,1 hPa 0,0 l/m 0 min 0 min 0 W/m 19,3 km/h (3 Bft) 95,74 %
21.11.2021 00:34 7,9 C 7,2 C 5,0 C 90 % 1016,2 hPa 0,0 l/m 0 min 0 min 0 W/m 16,1 km/h (3 Bft) 95,74 %
21.11.2021 00:36 7,8 C 7,2 C 5,0 C 90 % 1016,2 hPa 0,0 l/m 0 min 0 min 0 W/m 6,4 km/h (2 Bft) 97,83 %
21.11.2021 00:38 7,8 C 7,2 C 5,0 C 90 % 1016,2 hPa 0,0 l/m 0 min 0 min 0 W/m 9,7 km/h (2 Bft) 97,92 %
21.11.2021 00:40 7,8 C 7,2 C 5,0 C 90 % 1016,1 hPa 0,0 l/m 0 min 0 min 0 W/m 12,9 km/h (3 Bft) 95,74 %
21.11.2021 00:42 7,8 C 7,2 C 5,0 C 90 % 1016,1 hPa 0,0 l/m 0 min 0 min 0 W/m 6,4 km/h (2 Bft) 97,87 %
21.11.2021 00:44 7,8 C 7,2 C 5,0 C 90 % 1016,1 hPa 0,0 l/m 0 min 0 min 0 W/m 6,4 km/h (2 Bft) 95,74 %
21.11.2021 00:46 7,8 C 7,2 C 5,0 C 90 % 1016,0 hPa 0,0 l/m 0 min 0 min 0 W/m 6,4 km/h (2 Bft) 97,83 %
21.11.2021 00:48 7,8 C 7,2 C 5,0 C 91 % 1016,0 hPa 0,0 l/m 0 min 0 min 0 W/m 16,1 km/h (3 Bft) 100,00 %
21.11.2021 00:50 7,8 C 7,2 C 5,0 C 91 % 1015,9 hPa 0,0 l/m 0 min 0 min 0 W/m 6,4 km/h (2 Bft) 100,00 %
21.11.2021 00:52 7,8 C 7,2 C 5,0 C 91 % 1016,0 hPa 0,0 l/m 0 min 0 min 0 W/m 12,9 km/h (3 Bft) 100,00 %
21.11.2021 00:54 7,8 C 7,2 C 4,4 C 91 % 1016,1 hPa 0,0 l/m 0 min 0 min 0 W/m 6,4 km/h (2 Bft) 95,74 %
21.11.2021 00:56 7,8 C 7,2 C 4,4 C 91 % 1016,0 hPa 0,0 l/m 0 min 0 min 0 W/m 12,9 km/h (3 Bft) 97,87 %
21.11.2021 00:58 7,7 C 6,7 C 4,4 C 91 % 1015,9 hPa 0,0 l/m 0 min 0 min 0 W/m 6,4 km/h (2 Bft) 100,00 %
21.11.2021 01:00 7,7 C 6,7 C 4,4 C 91 % 1015,9 hPa 0,0 l/m 0 min 0 min 0 W/m 6,4 km/h (2 Bft) 100,00 %
21.11.2021 01:02 7,6 C 6,7 C 4,4 C 91 % 1015,9 hPa 0,0 l/m 0 min 0 min 0 W/m 9,7 km/h (2 Bft) 100,00 %
21.11.2021 01:04 7,6 C 6,7 C 4,4 C 91 % 1015,8 hPa 0,0 l/m 0 min 0 min 0 W/m 9,7 km/h (2 Bft) 95,74 %
21.11.2021 01:06 7,6 C 6,7 C 4,4 C 92 % 1015,7 hPa 0,0 l/m 0 min 0 min 0 W/m 9,7 km/h (2 Bft) 100,00 %
21.11.2021 01:08 7,6 C 6,7 C 4,4 C 92 % 1015,7 hPa 0,0 l/m 0 min 0 min 0 W/m 6,4 km/h (2 Bft) 100,00 %
21.11.2021 01:10 7,5 C 6,7 C 4,4 C 92 % 1015,6 hPa 0,0 l/m 0 min 0 min 0 W/m 9,7 km/h (2 Bft) 97,83 %
21.11.2021 01:12 7,5 C 6,7 C 4,4 C 92 % 1015,6 hPa 0,0 l/m 0 min 0 min 0 W/m 12,9 km/h (3 Bft) 97,87 %
21.11.2021 01:14 7,5 C 6,7 C 4,4 C 92 % 1015,6 hPa 0,0 l/m 0 min 0 min 0 W/m 12,9 km/h (3 Bft) 97,87 %
21.11.2021 01:16 7,5 C 6,7 C 4,4 C 92 % 1015,6 hPa 0,0 l/m 0 min 0 min 0 W/m 9,7 km/h (2 Bft) 100,00 %
21.11.2021 01:18 7,5 C 6,7 C 4,4 C 92 % 1015,6 hPa 0,0 l/m 0 min 0 min 0 W/m 12,9 km/h (3 Bft) 95,74 %
21.11.2021 01:20 7,4 C 6,7 C 4,4 C 92 % 1015,6 hPa 0,0 l/m 0 min 0 min 0 W/m 16,1 km/h (3 Bft) 95,74 %
21.11.2021 01:22 7,4 C 6,7 C 4,4 C 92 % 1015,6 hPa 0,0 l/m 0 min 0 min 0 W/m 16,1 km/h (3 Bft) 97,83 %
21.11.2021 01:24 7,4 C 6,7 C 4,4 C 93 % 1015,6 hPa 0,0 l/m 0 min 0 min 0 W/m 12,9 km/h (3 Bft) 97,87 %
21.11.2021 01:26 7,4 C 6,7 C 4,4 C 93 % 1015,5 hPa 0,0 l/m 0 min 0 min 0 W/m 6,4 km/h (2 Bft) 97,87 %
21.11.2021 01:28 7,4 C 6,7 C 4,4 C 93 % 1015,5 hPa 0,0 l/m 0 min 0 min 0 W/m 12,9 km/h (3 Bft) 97,87 %
21.11.2021 01:30 7,3 C 6,7 C 4,4 C 93 % 1015,5 hPa 0,0 l/m 0 min 0 min 0 W/m 12,9 km/h (3 Bft) 97,87 %
21.11.2021 01:32 7,3 C 6,7 C 4,4 C 93 % 1015,5 hPa 0,0 l/m 0 min 0 min 0 W/m 12,9 km/h (3 Bft) 97,87 %
21.11.2021 01:34 7,3 C 6,7 C 4,4 C 93 % 1015,4 hPa 0,0 l/m 0 min 0 min 0 W/m 12,9 km/h (3 Bft) 97,83 %
21.11.2021 01:36 7,3 C 6,7 C 4,4 C 93 % 1015,4 hPa 0,0 l/m 0 min 0 min 0 W/m 9,7 km/h (2 Bft) 95,74 %
21.11.2021 01:38 7,3 C 6,7 C 4,4 C 93 % 1015,4 hPa 0,0 l/m 0 min 0 min 0 W/m 16,1 km/h (3 Bft) 97,87 %
21.11.2021 01:40 7,3 C 6,7 C 4,4 C 93 % 1015,4 hPa 0,0 l/m 0 min 0 min 0 W/m 16,1 km/h (3 Bft) 97,87 %
21.11.2021 01:42 7,2 C 6,7 C 4,4 C 94 % 1015,3 hPa 0,0 l/m 0 min 0 min 0 W/m 16,1 km/h (3 Bft) 97,87 %
21.11.2021 01:44 7,2 C 6,7 C 4,4 C 94 % 1015,3 hPa 0,0 l/m 0 min 0 min 0 W/m 6,4 km/h (2 Bft) 97,87 %
21.11.2021 01:46 7,2 C 6,7 C 4,4 C 94 % 1015,3 hPa 0,0 l/m 0 min 0 min 0 W/m 12,9 km/h (3 Bft) 93,48 %
21.11.2021 01:48 7,1 C 6,7 C 4,4 C 94 % 1015,2 hPa 0,0 l/m 0 min 0 min 0 W/m 16,1 km/h (3 Bft) 95,74 %
21.11.2021 01:50 7,1 C 6,7 C 4,4 C 94 % 1015,1 hPa 0,0 l/m 0 min 0 min 0 W/m 6,4 km/h (2 Bft) 93,62 %
21.11.2021 01:52 7,1 C 6,7 C 4,4 C 94 % 1015,2 hPa 0,0 l/m 0 min 0 min 0 W/m 16,1 km/h (3 Bft) 95,74 %
21.11.2021 01:54 7,1 C 6,7 C 4,4 C 94 % 1015,1 hPa 0,0 l/m 0 min 0 min 0 W/m 6,4 km/h (2 Bft) 95,74 %
21.11.2021 01:56 7,1 C 6,7 C 4,4 C 94 % 1015,1 hPa 0,0 l/m 0 min 0 min 0 W/m 12,9 km/h (3 Bft) 95,74 %
21.11.2021 01:58 7,1 C 6,7 C 4,4 C 94 % 1015,1 hPa 0,0 l/m 0 min 0 min 0 W/m 16,1 km/h (3 Bft) 95,65 %
21.11.2021 02:00 7,1 C 6,7 C 4,4 C 94 % 1015,0 hPa 0,0 l/m 0 min 0 min 0 W/m 6,4 km/h (2 Bft) 97,87 %
21.11.2021 02:02 7,1 C 6,7 C 4,4 C 94 % 1015,0 hPa 0,0 l/m 0 min 0 min 0 W/m 12,9 km/h (3 Bft) 97,87 %
21.11.2021 02:04 7,1 C 6,7 C 4,4 C 94 % 1015,0 hPa 0,0 l/m 0 min 0 min 0 W/m 12,9 km/h (3 Bft) 97,87 %
21.11.2021 02:06 7,1 C 6,7 C 4,4 C 94 % 1015,0 hPa 0,0 l/m 0 min 0 min 0 W/m 9,7 km/h (2 Bft) 97,87 %
21.11.2021 02:08 7,1 C 6,7 C 4,4 C 94 % 1015,0 hPa 0,0 l/m 0 min 0 min 0 W/m 9,7 km/h (2 Bft) 97,83 %
21.11.2021 02:10 7,1 C 6,7 C 4,4 C 94 % 1015,0 hPa 0,0 l/m 0 min 0 min 0 W/m 6,4 km/h (2 Bft) 97,87 %
21.11.2021 02:12 7,1 C 6,7 C 4,4 C 94 % 1014,9 hPa 0,0 l/m 0 min 0 min 0 W/m 3,2 km/h (1 Bft) 44,19 %
21.11.2021 02:14 7,1 C 6,7 C 4,4 C 94 % 1014,9 hPa 0,0 l/m 0 min 0 min 0 W/m 6,4 km/h (2 Bft) 97,87 %
21.11.2021 02:16 7,1 C 6,7 C 4,4 C 94 % 1014,9 hPa 0,0 l/m 0 min 0 min 0 W/m 6,4 km/h (2 Bft) 100,00 %
21.11.2021 02:18 7,1 C 6,7 C 4,4 C 94 % 1014,9 hPa 0,0 l/m 0 min 0 min 0 W/m 6,4 km/h (2 Bft) 100,00 %
21.11.2021 02:20 7,1 C 6,7 C 4,4 C 95 % 1014,9 hPa 0,0 l/m 0 min 2 min 0 W/m 6,4 km/h (2 Bft) 100,00 %
21.11.2021 02:22 7,1 C 6,7 C 4,4 C 95 % 1014,9 hPa 0,0 l/m 0 min 0 min 0 W/m 3,2 km/h (1 Bft) 100,00 %
21.11.2021 02:24 7,1 C 6,7 C 4,4 C 95 % 1014,9 hPa 0,0 l/m 0 min 0 min 0 W/m 12,9 km/h (3 Bft) 100,00 %
21.11.2021 02:26 7,1 C 6,7 C 4,4 C 95 % 1014,9 hPa 0,0 l/m 0 min 0 min 0 W/m 12,9 km/h (3 Bft) 100,00 %
21.11.2021 02:28 7,1 C 6,7 C 4,4 C 95 % 1014,9 hPa 0,0 l/m 0 min 0 min 0 W/m 6,4 km/h (2 Bft) 100,00 %
21.11.2021 02:30 7,1 C 6,7 C 4,4 C 95 % 1014,9 hPa 0,0 l/m 0 min 0 min 0 W/m 6,4 km/h (2 Bft) 100,00 %
21.11.2021 02:32 7,1 C 6,7 C 4,4 C 95 % 1014,8 hPa 0,0 l/m 0 min 0 min 0 W/m 6,4 km/h (2 Bft) 97,83 %
21.11.2021 02:34 7,1 C 6,7 C 4,4 C 95 % 1014,8 hPa 0,0 l/m 0 min 0 min 0 W/m 3,2 km/h (1 Bft) 100,00 %
21.11.2021 02:36 7,1 C 6,7 C 4,4 C 95 % 1014,8 hPa 0,0 l/m 0 min 0 min 0 W/m 6,4 km/h (2 Bft) 97,87 %
21.11.2021 02:38 7,1 C 6,7 C 4,4 C 95 % 1014,7 hPa 0,0 l/m 0 min 0 min 0 W/m 9,7 km/h (2 Bft) 100,00 %
21.11.2021 02:40 7,1 C 6,7 C 4,4 C 95 % 1014,7 hPa 0,2 l/m 0 min 0 min 0 W/m 6,4 km/h (2 Bft) 97,87 %
21.11.2021 02:42 7,1 C 6,1 C 4,4 C 95 % 1014,7 hPa 0,0 l/m 0 min 0 min 0 W/m 3,2 km/h (1 Bft) 100,00 %
21.11.2021 02:44 7,1 C 6,1 C 4,4 C 95 % 1014,8 hPa 0,0 l/m 0 min 0 min 0 W/m 3,2 km/h (1 Bft) 100,00 %
21.11.2021 02:46 7,1 C 6,1 C 4,4 C 95 % 1014,7 hPa 0,0 l/m 0 min 0 min 0 W/m 12,9 km/h (3 Bft) 100,00 %
21.11.2021 02:48 7,1 C 6,1 C 4,4 C 95 % 1014,7 hPa 0,0 l/m 0 min 0 min 0 W/m 6,4 km/h (2 Bft) 100,00 %
21.11.2021 02:50 7,1 C 6,1 C 4,4 C 95 % 1014,7 hPa 0,0 l/m 0 min 0 min 0 W/m 6,4 km/h (2 Bft) 100,00 %
21.11.2021 02:52 7,1 C 6,1 C 4,4 C 95 % 1014,7 hPa 0,0 l/m 0 min 0 min 0 W/m 9,7 km/h (2 Bft) 100,00 %
21.11.2021 02:54 7,1 C 6,1 C 4,4 C 95 % 1014,6 hPa 0,0 l/m 0 min 0 min 0 W/m 6,4 km/h (2 Bft) 100,00 %
21.11.2021 02:56 7,1 C 6,1 C 4,4 C 95 % 1014,6 hPa 0,0 l/m 0 min 0 min 0 W/m 3,2 km/h (1 Bft) 100,00 %
21.11.2021 02:58 7,1 C 6,1 C 4,4 C 95 % 1014,6 hPa 0,0 l/m 0 min 0 min 0 W/m 6,4 km/h (2 Bft) 100,00 %
21.11.2021 03:00 7,1 C 6,7 C 4,4 C 95 % 1014,6 hPa 0,0 l/m 0 min 0 min 0 W/m 6,4 km/h (2 Bft) 97,87 %
21.11.2021 03:02 7,1 C 6,7 C 4,4 C 95 % 1014,6 hPa 0,0 l/m 0 min 0 min 0 W/m 12,9 km/h (3 Bft) 97,87 %
21.11.2021 03:04 7,1 C 6,7 C 4,4 C 95 % 1014,5 hPa 0,0 l/m 0 min 0 min 0 W/m 9,7 km/h (2 Bft) 97,87 %
21.11.2021 03:06 7,1 C 6,7 C 4,4 C 95 % 1014,5 hPa 0,0 l/m 0 min 0 min 0 W/m 6,4 km/h (2 Bft) 97,83 %
21.11.2021 03:08 7,1 C 6,7 C 4,4 C 95 % 1014,5 hPa 0,0 l/m 0 min 0 min 0 W/m 3,2 km/h (1 Bft) 95,74 %
21.11.2021 03:10 7,1 C 6,7 C 4,4 C 95 % 1014,4 hPa 0,0 l/m 0 min 0 min 0 W/m 3,2 km/h (1 Bft) 97,87 %
21.11.2021 03:12 7,1 C 6,7 C 4,4 C 96 % 1014,4 hPa 0,0 l/m 0 min 0 min 0 W/m 6,4 km/h (2 Bft) 97,87 %
21.11.2021 03:14 7,1 C 6,7 C 4,4 C 96 % 1014,4 hPa 0,0 l/m 0 min 0 min 0 W/m 6,4 km/h (2 Bft) 97,87 %
21.11.2021 03:16 7,1 C 6,7 C 4,4 C 96 % 1014,4 hPa 0,0 l/m 0 min 0 min 0 W/m 6,4 km/h (2 Bft) 95,74 %
21.11.2021 03:18 7,1 C 6,7 C 4,4 C 96 % 1014,3 hPa 0,0 l/m 0 min 0 min 0 W/m 9,7 km/h (2 Bft) 97,83 %
21.11.2021 03:20 7,0 C 6,7 C 4,4 C 96 % 1014,3 hPa 0,0 l/m 0 min 0 min 0 W/m 6,4 km/h (2 Bft) 97,87 %
21.11.2021 03:22 7,1 C 6,7 C 4,4 C 96 % 1014,2 hPa 0,0 l/m 0 min 0 min 0 W/m 9,7 km/h (2 Bft) 97,87 %
21.11.2021 03:24 7,0 C 6,7 C 4,4 C 96 % 1014,2 hPa 0,0 l/m 0 min 0 min 0 W/m 3,2 km/h (1 Bft) 97,87 %
21.11.2021 03:26 7,0 C 6,7 C 4,4 C 96 % 1014,2 hPa 0,0 l/m 0 min 0 min 0 W/m 3,2 km/h (1 Bft) 95,74 %
21.11.2021 03:28 7,0 C 6,7 C 4,4 C 96 % 1014,2 hPa 0,0 l/m 0 min 0 min 0 W/m 12,9 km/h (3 Bft) 95,74 %
21.11.2021 03:30 7,0 C 6,7 C 4,4 C 96 % 1014,1 hPa 0,0 l/m 0 min 0 min 0 W/m 6,4 km/h (2 Bft) 95,65 %
21.11.2021 03:32 7,0 C 6,7 C 4,4 C 96 % 1014,0 hPa 0,0 l/m 0 min 0 min 0 W/m 6,4 km/h (2 Bft) 47,37 %
21.11.2021 03:34 7,0 C 6,7 C 4,4 C 96 % 1014,0 hPa 0,0 l/m 0 min 0 min 0 W/m 6,4 km/h (2 Bft) 97,87 %
21.11.2021 03:36 7,0 C 6,7 C 4,4 C 96 % 1014,0 hPa 0,0 l/m 0 min 0 min 0 W/m 3,2 km/h (1 Bft) 95,74 %
21.11.2021 03:38 7,0 C 6,7 C 4,4 C 96 % 1014,1 hPa 0,0 l/m 0 min 0 min 0 W/m 12,9 km/h (3 Bft) 95,74 %
21.11.2021 03:40 7,0 C 6,7 C 4,4 C 96 % 1014,0 hPa 0,0 l/m 0 min 0 min 0 W/m 6,4 km/h (2 Bft) 93,62 %
21.11.2021 03:42 7,0 C 6,7 C 4,4 C 96 % 1014,0 hPa 0,0 l/m 0 min 0 min 0 W/m 6,4 km/h (2 Bft) 93,48 %
21.11.2021 03:44 7,0 C 6,7 C 4,4 C 96 % 1014,0 hPa 0,0 l/m 0 min 0 min 0 W/m 6,4 km/h (2 Bft) 95,74 %
21.11.2021 03:46 7,0 C 6,7 C 4,4 C 96 % 1013,9 hPa 0,0 l/m 0 min 0 min 0 W/m 6,4 km/h (2 Bft) 95,74 %
21.11.2021 03:48 7,0 C 6,7 C 4,4 C 96 % 1013,9 hPa 0,0 l/m 0 min 0 min 0 W/m 3,2 km/h (1 Bft) 95,74 %
21.11.2021 03:50 7,0 C 6,7 C 4,4 C 96 % 1013,9 hPa 0,0 l/m 0 min 0 min 0 W/m 9,7 km/h (2 Bft) 93,62 %
21.11.2021 03:52 7,0 C 6,7 C 4,4 C 96 % 1013,8 hPa 0,0 l/m 0 min 0 min 0 W/m 3,2 km/h (1 Bft) 91,30 %
21.11.2021 03:54 7,0 C 6,7 C 4,4 C 96 % 1013,8 hPa 0,0 l/m 0 min 0 min 0 W/m 3,2 km/h (1 Bft) 93,62 %
21.11.2021 03:56 7,0 C 6,7 C 4,4 C 96 % 1013,9 hPa 0,0 l/m 0 min 0 min 0 W/m 9,7 km/h (2 Bft) 95,74 %
21.11.2021 03:58 7,0 C 6,7 C 4,4 C 96 % 1013,8 hPa 0,0 l/m 0 min 0 min 0 W/m 3,2 km/h (1 Bft) 95,74 %
21.11.2021 04:00 7,0 C 6,7 C 4,4 C 96 % 1013,7 hPa 0,0 l/m 0 min 0 min 0 W/m 3,2 km/h (1 Bft) 95,74 %
21.11.2021 04:02 7,0 C 6,7 C 4,4 C 96 % 1013,7 hPa 0,0 l/m 0 min 0 min 0 W/m 12,9 km/h (3 Bft) 100,00 %
21.11.2021 04:04 7,0 C 6,7 C 4,4 C 96 % 1013,7 hPa 0,0 l/m 0 min 0 min 0 W/m 16,1 km/h (3 Bft) 95,65 %
21.11.2021 04:06 7,0 C 6,7 C 4,4 C 96 % 1013,7 hPa 0,0 l/m 0 min 0 min 0 W/m 6,4 km/h (2 Bft) 96,67 %
21.11.2021 04:08 7,0 C 6,7 C 4,4 C 96 % 1013,7 hPa 0,0 l/m 0 min 0 min 0 W/m 12,9 km/h (3 Bft) 100,00 %
21.11.2021 04:10 7,0 C 6,7 C 4,4 C 96 % 1013,6 hPa 0,0 l/m 0 min 0 min 0 W/m 6,4 km/h (2 Bft) 95,74 %
21.11.2021 04:12 7,0 C 6,7 C 4,4 C 96 % 1013,6 hPa 0,0 l/m 0 min 0 min 0 W/m 6,4 km/h (2 Bft) 96,15 %
21.11.2021 04:14 7,0 C 6,7 C 4,4 C 96 % 1013,6 hPa 0,0 l/m 0 min 0 min 0 W/m 9,7 km/h (2 Bft) 97,87 %
21.11.2021 04:16 7,0 C 6,7 C 4,4 C 96 % 1013,6 hPa 0,0 l/m 0 min 0 min 0 W/m 6,4 km/h (2 Bft) 97,83 %
21.11.2021 04:18 7,0 C 6,7 C 4,4 C 96 % 1013,6 hPa 0,0 l/m 0 min 0 min 0 W/m 12,9 km/h (3 Bft) 100,00 %
21.11.2021 04:20 7,0 C 6,7 C 4,4 C 96 % 1013,6 hPa 0,0 l/m 0 min 0 min 0 W/m 6,4 km/h (2 Bft) 100,00 %
21.11.2021 04:22 7,0 C 6,7 C 4,4 C 96 % 1013,5 hPa 0,0 l/m 0 min 0 min 0 W/m 12,9 km/h (3 Bft) 95,74 %
21.11.2021 04:24 7,0 C 6,7 C 4,4 C 96 % 1013,5 hPa 0,0 l/m 0 min 0 min 0 W/m 6,4 km/h (2 Bft) 97,87 %
21.11.2021 04:26 7,0 C 6,7 C 4,4 C 96 % 1013,5 hPa 0,0 l/m 0 min 0 min 0 W/m 9,7 km/h (2 Bft) 95,74 %
21.11.2021 04:28 7,0 C 6,7 C 4,4 C 96 % 1013,5 hPa 0,0 l/m 0 min 0 min 0 W/m 9,7 km/h (2 Bft) 97,83 %
21.11.2021 04:30 7,0 C 6,7 C 4,4 C 96 % 1013,4 hPa 0,0 l/m 0 min 0 min 0 W/m 6,4 km/h (2 Bft) 97,87 %
21.11.2021 04:32 7,0 C 6,7 C 4,4 C 96 % 1013,4 hPa 0,0 l/m 0 min 0 min 0 W/m 16,1 km/h (3 Bft) 93,62 %
21.11.2021 04:34 7,0 C 6,7 C 5,0 C 96 % 1013,4 hPa 0,0 l/m 0 min 0 min 0 W/m 16,1 km/h (3 Bft) 100,00 %
21.11.2021 04:36 7,0 C 6,7 C 5,0 C 96 % 1013,3 hPa 0,0 l/m 0 min 0 min 0 W/m 9,7 km/h (2 Bft) 97,87 %
21.11.2021 04:38 7,0 C 6,7 C 5,0 C 96 % 1013,3 hPa 0,0 l/m 0 min 0 min 0 W/m 12,9 km/h (3 Bft) 97,87 %
21.11.2021 04:40 7,0 C 6,7 C 5,0 C 96 % 1013,3 hPa 0,0 l/m 0 min 0 min 0 W/m 6,4 km/h (2 Bft) 100,00 %
21.11.2021 04:42 7,0 C 6,7 C 5,0 C 96 % 1013,3 hPa 0,0 l/m 0 min 0 min 0 W/m 12,9 km/h (3 Bft) 100,00 %
21.11.2021 04:44 7,0 C 6,7 C 5,0 C 96 % 1013,3 hPa 0,0 l/m 0 min 0 min 0 W/m 6,4 km/h (2 Bft) 100,00 %
21.11.2021 04:46 7,0 C 6,7 C 5,0 C 96 % 1013,3 hPa 0,0 l/m 0 min 0 min 0 W/m 6,4 km/h (2 Bft) 97,87 %
21.11.2021 04:48 7,0 C 6,7 C 5,0 C 96 % 1013,3 hPa 0,0 l/m 0 min 0 min 0 W/m 16,1 km/h (3 Bft) 100,00 %
21.11.2021 04:50 7,0 C 6,7 C 5,0 C 96 % 1013,3 hPa 0,0 l/m 0 min 0 min 0 W/m 16,1 km/h (3 Bft) 100,00 %
21.11.2021 04:52 7,0 C 6,7 C 4,4 C 96 % 1013,2 hPa 0,0 l/m 0 min 0 min 0 W/m 12,9 km/h (3 Bft) 100,00 %
21.11.2021 04:54 7,0 C 6,7 C 5,0 C 96 % 1013,2 hPa 0,0 l/m 0 min 2 min 0 W/m 3,2 km/h (1 Bft) 100,00 %
21.11.2021 04:56 7,0 C 6,7 C 5,0 C 96 % 1013,2 hPa 0,0 l/m 0 min 0 min 0 W/m 6,4 km/h (2 Bft) 100,00 %
21.11.2021 04:58 7,0 C 6,7 C 5,0 C 96 % 1013,1 hPa 0,0 l/m 0 min 0 min 0 W/m 16,1 km/h (3 Bft) 100,00 %
21.11.2021 05:00 7,0 C 6,7 C 4,4 C 96 % 1013,2 hPa 0,0 l/m 0 min 0 min 0 W/m 6,4 km/h (2 Bft) 100,00 %
21.11.2021 05:02 7,0 C 6,7 C 5,0 C 96 % 1013,2 hPa 0,0 l/m 0 min 0 min 0 W/m 9,7 km/h (2 Bft) 97,83 %
21.11.2021 05:04 7,0 C 6,7 C 5,0 C 96 % 1013,1 hPa 0,0 l/m 0 min 0 min 0 W/m 6,4 km/h (2 Bft) 97,87 %
21.11.2021 05:06 7,0 C 6,7 C 5,0 C 96 % 1013,1 hPa 0,0 l/m 0 min 0 min 0 W/m 12,9 km/h (3 Bft) 100,00 %
21.11.2021 05:08 7,0 C 6,7 C 4,4 C 96 % 1013,1 hPa 0,0 l/m 0 min 0 min 0 W/m 6,4 km/h (2 Bft) 100,00 %
21.11.2021 05:10 7,0 C 6,7 C 5,0 C 96 % 1013,1 hPa 0,0 l/m 0 min 0 min 0 W/m 6,4 km/h (2 Bft) 100,00 %
21.11.2021 05:12 7,0 C 6,7 C 5,0 C 96 % 1013,0 hPa 0,0 l/m 0 min 0 min 0 W/m 12,9 km/h (3 Bft) 100,00 %
21.11.2021 05:14 7,0 C 6,7 C 5,0 C 96 % 1013,0 hPa 0,0 l/m 0 min 0 min 0 W/m 6,4 km/h (2 Bft) 100,00 %
21.11.2021 05:16 7,0 C 6,7 C 5,0 C 96 % 1013,0 hPa 0,0 l/m 0 min 0 min 0 W/m 6,4 km/h (2 Bft) 100,00 %
21.11.2021 05:18 7,0 C 6,7 C 5,0 C 96 % 1012,9 hPa 0,0 l/m 0 min 0 min 0 W/m 12,9 km/h (3 Bft) 100,00 %
21.11.2021 05:20 7,0 C 6,7 C 5,0 C 96 % 1013,0 hPa 0,0 l/m 0 min 0 min 0 W/m 6,4 km/h (2 Bft) 97,87 %
21.11.2021 05:22 7,0 C 6,7 C 5,0 C 97 % 1013,0 hPa 0,0 l/m 0 min 0 min 0 W/m 3,2 km/h (1 Bft) 97,87 %
21.11.2021 05:24 7,0 C 6,7 C 5,0 C 97 % 1012,9 hPa 0,0 l/m 0 min 0 min 0 W/m 6,4 km/h (2 Bft) 100,00 %
21.11.2021 05:26 7,0 C 6,7 C 5,0 C 97 % 1012,9 hPa 0,0 l/m 0 min 0 min 0 W/m 6,4 km/h (2 Bft) 100,00 %
21.11.2021 05:28 7,0 C 6,7 C 5,0 C 97 % 1012,9 hPa 0,0 l/m 0 min 0 min 0 W/m 16,1 km/h (3 Bft) 100,00 %
21.11.2021 05:30 7,0 C 6,7 C 5,0 C 97 % 1012,9 hPa 0,0 l/m 0 min 0 min 0 W/m 6,4 km/h (2 Bft) 97,87 %
21.11.2021 05:32 7,0 C 6,7 C 5,0 C 97 % 1012,9 hPa 0,0 l/m 0 min 0 min 0 W/m 3,2 km/h (1 Bft) 97,87 %
21.11.2021 05:34 7,0 C 6,7 C 5,0 C 97 % 1012,8 hPa 0,0 l/m 0 min 0 min 0 W/m 6,4 km/h (2 Bft) 97,87 %
21.11.2021 05:36 6,9 C 6,7 C 5,0 C 97 % 1012,7 hPa 0,0 l/m 0 min 0 min 0 W/m 6,4 km/h (2 Bft) 97,87 %
21.11.2021 05:38 6,9 C 6,7 C 5,0 C 97 % 1012,7 hPa 0,0 l/m 0 min 0 min 0 W/m 6,4 km/h (2 Bft) 97,83 %
21.11.2021 05:40 7,0 C 6,7 C 5,0 C 97 % 1012,7 hPa 0,0 l/m 0 min 0 min 0 W/m 6,4 km/h (2 Bft) 97,87 %
21.11.2021 05:42 6,9 C 6,7 C 5,0 C 97 % 1012,7 hPa 0,0 l/m 0 min 0 min 0 W/m 6,4 km/h (2 Bft) 97,87 %
21.11.2021 05:44 7,0 C 6,7 C 5,0 C 97 % 1012,7 hPa 0,0 l/m 0 min 0 min 0 W/m 6,4 km/h (2 Bft) 97,87 %
21.11.2021 05:46 7,0 C 6,7 C 5,0 C 97 % 1012,7 hPa 0,0 l/m 0 min 0 min 0 W/m 9,7 km/h (2 Bft) 97,87 %
21.11.2021 05:48 6,9 C 6,7 C 5,0 C 97 % 1012,7 hPa 0,0 l/m 0 min 0 min 0 W/m 9,7 km/h (2 Bft) 97,87 %
21.11.2021 05:50 6,9 C 6,7 C 5,0 C 97 % 1012,6 hPa 0,0 l/m 0 min 0 min 0 W/m 9,7 km/h (2 Bft) 97,83 %
21.11.2021 05:52 6,9 C 6,7 C 5,0 C 97 % 1012,6 hPa 0,0 l/m 0 min 0 min 0 W/m 6,4 km/h (2 Bft) 97,87 %
21.11.2021 05:54 6,9 C 6,7 C 5,0 C 97 % 1012,5 hPa 0,0 l/m 0 min 0 min 0 W/m 6,4 km/h (2 Bft) 95,74 %
21.11.2021 05:56 6,9 C 6,7 C 5,0 C 97 % 1012,6 hPa 0,0 l/m 0 min 0 min 0 W/m 16,1 km/h (3 Bft) 97,87 %
21.11.2021 05:58 6,9 C 6,7 C 5,0 C 97 % 1012,5 hPa 0,0 l/m 0 min 0 min 0 W/m 12,9 km/h (3 Bft) 97,87 %
21.11.2021 06:00 6,9 C 6,7 C 5,0 C 97 % 1012,5 hPa 0,0 l/m 0 min 0 min 0 W/m 6,4 km/h (2 Bft) 100,00 %
21.11.2021 06:02 6,9 C 6,7 C 5,0 C 97 % 1012,6 hPa 0,0 l/m 0 min 0 min 0 W/m 6,4 km/h (2 Bft) 100,00 %
21.11.2021 06:04 7,0 C 6,7 C 5,0 C 97 % 1012,5 hPa 0,0 l/m 0 min 0 min 0 W/m 3,2 km/h (1 Bft) 100,00 %
21.11.2021 06:06 7,0 C 6,7 C 5,0 C 97 % 1012,5 hPa 0,0 l/m 0 min 0 min 0 W/m 3,2 km/h (1 Bft) 97,87 %
21.11.2021 06:08 7,0 C 6,7 C 5,0 C 97 % 1012,6 hPa 0,0 l/m 0 min 0 min 0 W/m 9,7 km/h (2 Bft) 95,74 %
21.11.2021 06:10 7,0 C 6,7 C 5,0 C 97 % 1012,5 hPa 0,0 l/m 0 min 0 min 0 W/m 6,4 km/h (2 Bft) 97,87 %
21.11.2021 06:12 7,0 C 6,7 C 5,0 C 97 % 1012,5 hPa 0,0 l/m 0 min 0 min 0 W/m 12,9 km/h (3 Bft) 97,83 %
21.11.2021 06:14 7,0 C 6,7 C 5,0 C 97 % 1012,5 hPa 0,0 l/m 0 min 0 min 0 W/m 12,9 km/h (3 Bft) 97,87 %
21.11.2021 06:16 7,0 C 6,7 C 5,0 C 97 % 1012,5 hPa 0,0 l/m 0 min 0 min 0 W/m 12,9 km/h (3 Bft) 97,87 %
21.11.2021 06:18 7,0 C 6,7 C 5,0 C 97 % 1012,5 hPa 0,0 l/m 0 min 0 min 0 W/m 12,9 km/h (3 Bft) 93,62 %
21.11.2021 06:20 7,0 C 6,7 C 5,0 C 97 % 1012,5 hPa 0,0 l/m 0 min 0 min 0 W/m 6,4 km/h (2 Bft) 97,87 %
21.11.2021 06:22 7,0 C 6,7 C 5,0 C 97 % 1012,4 hPa 0,0 l/m 0 min 0 min 0 W/m 6,4 km/h (2 Bft) 95,74 %
21.11.2021 06:24 7,0 C 6,7 C 5,0 C 97 % 1012,4 hPa 0,0 l/m 0 min 0 min 0 W/m 6,4 km/h (2 Bft) 93,48 %
21.11.2021 06:26 7,0 C 6,7 C 5,0 C 97 % 1012,4 hPa 0,0 l/m 0 min 0 min 0 W/m 6,4 km/h (2 Bft) 95,74 %
21.11.2021 06:28 7,0 C 6,7 C 5,0 C 97 % 1012,4 hPa 0,0 l/m 0 min 0 min 0 W/m 12,9 km/h (3 Bft) 95,74 %
21.11.2021 06:30 7,0 C 6,7 C 5,0 C 97 % 1012,4 hPa 0,0 l/m 0 min 0 min 0 W/m 6,4 km/h (2 Bft) 95,74 %
21.11.2021 06:32 7,0 C 6,7 C 5,0 C 97 % 1012,4 hPa 0,0 l/m 0 min 0 min 0 W/m 12,9 km/h (3 Bft) 95,74 %
21.11.2021 06:34 7,0 C 6,7 C 5,0 C 97 % 1012,3 hPa 0,0 l/m 0 min 0 min 0 W/m 3,2 km/h (1 Bft) 95,74 %
21.11.2021 06:36 7,0 C 6,7 C 5,0 C 97 % 1012,3 hPa 0,0 l/m 0 min 0 min 0 W/m 19,3 km/h (3 Bft) 93,48 %
21.11.2021 06:38 7,0 C 6,7 C 5,0 C 97 % 1012,4 hPa 0,0 l/m 0 min 0 min 0 W/m 6,4 km/h (2 Bft) 95,74 %
21.11.2021 06:40 7,0 C 6,7 C 5,0 C 97 % 1012,3 hPa 0,0 l/m 0 min 0 min 0 W/m 6,4 km/h (2 Bft) 93,62 %
21.11.2021 06:42 7,0 C 6,7 C 5,0 C 97 % 1012,3 hPa 0,0 l/m 0 min 0 min 0 W/m 6,4 km/h (2 Bft) 95,74 %
21.11.2021 06:44 7,0 C 6,7 C 5,0 C 97 % 1012,2 hPa 0,0 l/m 0 min 0 min 0 W/m 12,9 km/h (3 Bft) 95,74 %
21.11.2021 06:46 7,0 C 6,7 C 5,0 C 97 % 1012,3 hPa 0,0 l/m 0 min 0 min 0 W/m 6,4 km/h (2 Bft) 95,74 %
21.11.2021 06:48 7,0 C 6,7 C 5,0 C 97 % 1012,2 hPa 0,0 l/m 0 min 0 min 0 W/m 9,7 km/h (2 Bft) 95,65 %
21.11.2021 06:50 7,0 C 6,7 C 5,0 C 97 % 1012,2 hPa 0,0 l/m 0 min 0 min 0 W/m 9,7 km/h (2 Bft) 93,62 %
21.11.2021 06:52 7,0 C 6,7 C 5,0 C 97 % 1012,3 hPa 0,0 l/m 0 min 0 min 0 W/m 6,4 km/h (2 Bft) 95,65 %
21.11.2021 06:54 7,0 C 6,7 C 5,0 C 97 % 1012,2 hPa 0,0 l/m 0 min 0 min 0 W/m 6,4 km/h (2 Bft) 93,62 %
21.11.2021 06:56 7,0 C 6,7 C 5,0 C 97 % 1012,2 hPa 0,0 l/m 0 min 0 min 0 W/m 6,4 km/h (2 Bft) 95,74 %
21.11.2021 06:58 7,0 C 6,7 C 5,0 C 97 % 1012,3 hPa 0,0 l/m 0 min 0 min 0 W/m 16,1 km/h (3 Bft) 97,83 %
21.11.2021 07:00 7,0 C 6,7 C 5,0 C 97 % 1012,3 hPa 0,0 l/m 0 min 0 min 0 W/m 6,4 km/h (2 Bft) 97,87 %
21.11.2021 07:02 7,0 C 6,7 C 5,0 C 97 % 1012,3 hPa 0,0 l/m 0 min 0 min 0 W/m 6,4 km/h (2 Bft) 95,74 %
21.11.2021 07:04 7,0 C 6,7 C 5,0 C 97 % 1012,2 hPa 0,0 l/m 0 min 0 min 0 W/m 9,7 km/h (2 Bft) 100,00 %
21.11.2021 07:06 7,0 C 6,7 C 5,0 C 97 % 1012,1 hPa 0,0 l/m 0 min 0 min 0 W/m 9,7 km/h (2 Bft) 100,00 %
21.11.2021 07:08 7,0 C 6,7 C 5,0 C 97 % 1012,2 hPa 0,0 l/m 0 min 0 min 0 W/m 3,2 km/h (1 Bft) 97,87 %
21.11.2021 07:10 7,0 C 6,7 C 5,0 C 97 % 1012,1 hPa 0,0 l/m 0 min 0 min 0 W/m 6,4 km/h (2 Bft) 100,00 %
21.11.2021 07:12 7,1 C 6,7 C 5,0 C 97 % 1012,2 hPa 0,0 l/m 0 min 0 min 0 W/m 16,1 km/h (3 Bft) 97,87 %
21.11.2021 07:14 7,1 C 6,7 C 5,0 C 97 % 1012,2 hPa 0,0 l/m 0 min 0 min 0 W/m 6,4 km/h (2 Bft) 100,00 %
21.11.2021 07:16 7,1 C 6,7 C 5,0 C 97 % 1012,2 hPa 0,0 l/m 0 min 0 min 0 W/m 6,4 km/h (2 Bft) 97,87 %
21.11.2021 07:18 7,1 C 6,7 C 5,0 C 97 % 1012,2 hPa 0,0 l/m 0 min 0 min 0 W/m 6,4 km/h (2 Bft) 100,00 %
21.11.2021 07:20 7,1 C 6,7 C 5,0 C 97 % 1012,2 hPa 0,0 l/m 0 min 0 min 0 W/m 9,7 km/h (2 Bft) 95,74 %
21.11.2021 07:22 7,1 C 6,7 C 5,0 C 97 % 1012,1 hPa 0,0 l/m 0 min 0 min 0 W/m 6,4 km/h (2 Bft) 97,83 %
21.11.2021 07:24 7,1 C 6,7 C 5,0 C 97 % 1012,0 hPa 0,0 l/m 0 min 0 min 0 W/m 12,9 km/h (3 Bft) 97,87 %
21.11.2021 07:26 7,1 C 6,7 C 5,0 C 97 % 1012,0 hPa 0,0 l/m 0 min 0 min 0 W/m 9,7 km/h (2 Bft) 95,74 %
21.11.2021 07:28 7,1 C 6,7 C 5,0 C 97 % 1012,0 hPa 0,0 l/m 0 min 0 min 0 W/m 6,4 km/h (2 Bft) 97,87 %
21.11.2021 07:30 7,1 C 6,7 C 5,0 C 97 % 1011,9 hPa 0,0 l/m 0 min 0 min 0 W/m 6,4 km/h (2 Bft) 97,87 %
21.11.2021 07:32 7,1 C 6,7 C 5,0 C 97 % 1011,9 hPa 0,0 l/m 0 min 0 min 0 W/m 6,4 km/h (2 Bft) 97,87 %
21.11.2021 07:34 7,1 C 6,7 C 5,0 C 97 % 1012,0 hPa 0,0 l/m 0 min 0 min 0 W/m 16,1 km/h (3 Bft) 97,83 %
21.11.2021 07:36 7,0 C 6,7 C 5,0 C 97 % 1011,9 hPa 0,0 l/m 0 min 0 min 0 W/m 6,4 km/h (2 Bft) 97,87 %
21.11.2021 07:38 7,0 C 6,7 C 5,0 C 97 % 1011,9 hPa 0,0 l/m 0 min 0 min 0 W/m 12,9 km/h (3 Bft) 97,87 %
21.11.2021 07:40 7,0 C 6,7 C 5,0 C 97 % 1011,9 hPa 0,0 l/m 0 min 0 min 0 W/m 6,4 km/h (2 Bft) 97,87 %
21.11.2021 07:42 7,0 C 6,7 C 5,0 C 97 % 1011,8 hPa 0,0 l/m 0 min 0 min 0 W/m 6,4 km/h (2 Bft) 97,87 %
21.11.2021 07:44 7,0 C 6,7 C 5,0 C 97 % 1011,8 hPa 0,0 l/m 0 min 0 min 0 W/m 12,9 km/h (3 Bft) 97,87 %
21.11.2021 07:46 7,0 C 6,7 C 5,0 C 97 % 1011,8 hPa 0,0 l/m 0 min 0 min 0 W/m 12,9 km/h (3 Bft) 97,83 %
21.11.2021 07:48 7,0 C 6,7 C 5,0 C 97 % 1011,8 hPa 0,0 l/m 0 min 0 min 0 W/m 12,9 km/h (3 Bft) 97,87 %
21.11.2021 07:50 7,0 C 6,7 C 5,0 C 97 % 1011,8 hPa 0,0 l/m 0 min 0 min 0 W/m 9,7 km/h (2 Bft) 97,87 %
21.11.2021 07:52 7,0 C 6,7 C 5,0 C 97 % 1011,8 hPa 0,0 l/m 0 min 0 min 0 W/m 3,2 km/h (1 Bft) 100,00 %
21.11.2021 07:54 7,0 C 6,7 C 5,0 C 97 % 1011,8 hPa 0,0 l/m 0 min 0 min 0 W/m 6,4 km/h (2 Bft) 97,87 %
21.11.2021 07:56 7,0 C 6,7 C 5,0 C 97 % 1011,9 hPa 0,0 l/m 0 min 0 min 0 W/m 6,4 km/h (2 Bft) 100,00 %
21.11.2021 07:58 7,0 C 6,7 C 5,0 C 97 % 1011,9 hPa 0,0 l/m 0 min 0 min 0 W/m 6,4 km/h (2 Bft) 100,00 %
21.11.2021 08:00 7,0 C 6,7 C 5,0 C 97 % 1011,9 hPa 0,0 l/m 0 min 0 min 0 W/m 6,4 km/h (2 Bft) 100,00 %
21.11.2021 08:02 7,0 C 6,7 C 5,0 C 97 % 1012,0 hPa 0,0 l/m 0 min 0 min 0 W/m 6,4 km/h (2 Bft) 100,00 %
21.11.2021 08:04 7,0 C 6,7 C 5,0 C 97 % 1012,0 hPa 0,0 l/m 0 min 0 min 0 W/m 6,4 km/h (2 Bft) 100,00 %
21.11.2021 08:06 7,0 C 6,7 C 5,0 C 97 % 1012,0 hPa 0,0 l/m 0 min 0 min 0 W/m 3,2 km/h (1 Bft) 100,00 %
21.11.2021 08:08 7,0 C 6,7 C 5,0 C 97 % 1012,0 hPa 0,0 l/m 0 min 0 min 0 W/m 6,4 km/h (2 Bft) 100,00 %
21.11.2021 08:10 7,0 C 6,7 C 5,0 C 97 % 1012,0 hPa 0,0 l/m 0 min 0 min 0 W/m 3,2 km/h (1 Bft) 97,87 %
21.11.2021 08:12 7,1 C 6,7 C 5,0 C 97 % 1012,1 hPa 0,0 l/m 0 min 0 min 0 W/m 12,9 km/h (3 Bft) 100,00 %
21.11.2021 08:14 7,1 C 6,7 C 5,0 C 97 % 1012,1 hPa 0,0 l/m 0 min 0 min 0 W/m 12,9 km/h (3 Bft) 100,00 %
21.11.2021 08:16 7,1 C 6,7 C 5,0 C 97 % 1012,1 hPa 0,0 l/m 0 min 0 min 0 W/m 9,7 km/h (2 Bft) 97,87 %
21.11.2021 08:18 7,1 C 6,7 C 5,0 C 97 % 1012,1 hPa 0,0 l/m 0 min 0 min 0 W/m 6,4 km/h (2 Bft) 100,00 %
21.11.2021 08:20 7,1 C 6,7 C 5,0 C 97 % 1012,1 hPa 0,2 l/m 0 min 2 min 0 W/m 9,7 km/h (2 Bft) 97,83 %
21.11.2021 08:22 7,1 C 6,7 C 5,0 C 97 % 1012,2 hPa 0,0 l/m 0 min 2 min 0 W/m 3,2 km/h (1 Bft) 100,00 %
21.11.2021 08:24 7,1 C 6,7 C 5,0 C 97 % 1012,1 hPa 0,0 l/m 0 min 2 min 0 W/m 9,7 km/h (2 Bft) 100,00 %
21.11.2021 08:26 7,1 C 6,7 C 5,0 C 97 % 1012,1 hPa 0,0 l/m 0 min 0 min 0 W/m 6,4 km/h (2 Bft) 97,87 %
21.11.2021 08:28 7,1 C 6,7 C 5,0 C 97 % 1012,1 hPa 0,2 l/m 0 min 0 min 0 W/m 6,4 km/h (2 Bft) 100,00 %
21.11.2021 08:30 7,1 C 6,7 C 5,0 C 97 % 1012,1 hPa 0,0 l/m 0 min 0 min 0 W/m 6,4 km/h (2 Bft) 97,87 %
21.11.2021 08:32 7,1 C 6,7 C 5,0 C 97 % 1012,1 hPa 0,0 l/m 0 min 0 min 0 W/m 3,2 km/h (1 Bft) 100,00 %
21.11.2021 08:34 7,1 C 6,7 C 5,0 C 97 % 1012,2 hPa 0,0 l/m 0 min 0 min 0 W/m 3,2 km/h (1 Bft) 97,83 %
21.11.2021 08:36 7,1 C 6,7 C 5,0 C 97 % 1012,2 hPa 0,0 l/m 0 min 0 min 0 W/m 12,9 km/h (3 Bft) 100,00 %
21.11.2021 08:38 7,1 C 6,7 C 5,0 C 97 % 1012,2 hPa 0,0 l/m 0 min 0 min 0 W/m 3,2 km/h (1 Bft) 100,00 %
21.11.2021 08:40 7,1 C 6,7 C 5,0 C 97 % 1012,2 hPa 0,0 l/m 0 min 0 min 0 W/m 6,4 km/h (2 Bft) 100,00 %
21.11.2021 08:42 7,1 C 6,7 C 5,0 C 97 % 1012,2 hPa 0,0 l/m 0 min 0 min 0 W/m 6,4 km/h (2 Bft) 97,87 %
21.11.2021 08:44 7,1 C 6,7 C 5,0 C 97 % 1012,2 hPa 0,0 l/m 0 min 0 min 0 W/m 3,2 km/h (1 Bft) 95,65 %
21.11.2021 08:46 7,1 C 6,7 C 5,0 C 97 % 1012,2 hPa 0,0 l/m 0 min 0 min 2 W/m 6,4 km/h (2 Bft) 100,00 %
21.11.2021 08:48 7,1 C 6,7 C 5,0 C 97 % 1012,2 hPa 0,0 l/m 0 min 0 min 5 W/m 6,4 km/h (2 Bft) 100,00 %
21.11.2021 08:50 7,1 C 6,7 C 5,0 C 97 % 1012,2 hPa 0,0 l/m 0 min 0 min 6 W/m 6,4 km/h (2 Bft) 100,00 %
21.11.2021 08:52 7,1 C 6,7 C 5,0 C 97 % 1012,2 hPa 0,0 l/m 0 min 0 min 7 W/m 6,4 km/h (2 Bft) 97,87 %
21.11.2021 08:54 7,1 C 6,7 C 5,0 C 97 % 1012,2 hPa 0,2 l/m 0 min 0 min 10 W/m 6,4 km/h (2 Bft) 97,87 %
21.11.2021 08:56 7,1 C 6,7 C 5,0 C 97 % 1012,2 hPa 0,0 l/m 0 min 0 min 13 W/m 6,4 km/h (2 Bft) 100,00 %
21.11.2021 08:58 7,1 C 6,7 C 5,0 C 97 % 1012,3 hPa 0,0 l/m 0 min 0 min 16 W/m 6,4 km/h (2 Bft) 97,87 %
21.11.2021 09:00 7,1 C 6,7 C 5,0 C 97 % 1012,2 hPa 0,0 l/m 0 min 0 min 13 W/m 3,2 km/h (1 Bft) 95,74 %
21.11.2021 09:02 7,1 C 6,7 C 5,0 C 97 % 1012,2 hPa 0,0 l/m 0 min 0 min 12 W/m 6,4 km/h (2 Bft) 97,87 %
21.11.2021 09:04 7,1 C 6,7 C 5,0 C 97 % 1012,3 hPa 0,0 l/m 0 min 0 min 15 W/m 6,4 km/h (2 Bft) 97,87 %
21.11.2021 09:06 7,1 C 6,7 C 5,0 C 97 % 1012,3 hPa 0,0 l/m 0 min 0 min 17 W/m 6,4 km/h (2 Bft) 95,65 %
21.11.2021 09:08 7,1 C 6,7 C 5,0 C 97 % 1012,3 hPa 0,0 l/m 0 min 0 min 21 W/m 6,4 km/h (2 Bft) 95,74 %
21.11.2021 09:10 7,1 C 6,7 C 5,0 C 97 % 1012,3 hPa 0,0 l/m 0 min 0 min 25 W/m 6,4 km/h (2 Bft) 97,87 %
21.11.2021 09:12 7,1 C 6,7 C 5,6 C 97 % 1012,3 hPa 0,0 l/m 0 min 0 min 31 W/m 9,7 km/h (2 Bft) 95,74 %
21.11.2021 09:14 7,2 C 6,7 C 5,0 C 97 % 1012,3 hPa 0,0 l/m 0 min 0 min 32 W/m 9,7 km/h (2 Bft) 93,62 %
21.11.2021 09:16 7,2 C 6,7 C 5,6 C 97 % 1012,4 hPa 0,0 l/m 0 min 0 min 35 W/m 9,7 km/h (2 Bft) 93,62 %
21.11.2021 09:18 7,2 C 6,7 C 5,6 C 97 % 1012,4 hPa 0,0 l/m 0 min 0 min 29 W/m 6,4 km/h (2 Bft) 93,48 %
21.11.2021 09:20 7,2 C 6,7 C 5,6 C 97 % 1012,4 hPa 0,0 l/m 0 min 0 min 27 W/m 3,2 km/h (1 Bft) 93,62 %
21.11.2021 09:22 7,3 C 6,7 C 5,6 C 97 % 1012,3 hPa 0,0 l/m 0 min 0 min 25 W/m 6,4 km/h (2 Bft) 89,36 %
21.11.2021 09:24 7,3 C 6,7 C 5,6 C 97 % 1012,3 hPa 0,0 l/m 0 min 0 min 21 W/m 3,2 km/h (1 Bft) 93,62 %
21.11.2021 09:26 7,3 C 6,7 C 5,6 C 97 % 1012,2 hPa 0,0 l/m 0 min 0 min 18 W/m 6,4 km/h (2 Bft) 93,62 %
21.11.2021 09:28 7,3 C 6,7 C 5,6 C 97 % 1012,3 hPa 0,0 l/m 0 min 0 min 20 W/m 6,4 km/h (2 Bft) 93,62 %
21.11.2021 09:30 7,3 C 6,7 C 5,6 C 97 % 1012,3 hPa 0,0 l/m 0 min 0 min 27 W/m 6,4 km/h (2 Bft) 91,30 %
21.11.2021 09:32 7,3 C 6,7 C 5,6 C 97 % 1012,3 hPa 0,0 l/m 0 min 0 min 32 W/m 6,4 km/h (2 Bft) 93,62 %
21.11.2021 09:34 7,3 C 6,7 C 5,6 C 97 % 1012,3 hPa 0,0 l/m 0 min 0 min 32 W/m 6,4 km/h (2 Bft) 93,62 %
21.11.2021 09:36 7,4 C 6,7 C 5,6 C 97 % 1012,3 hPa 0,0 l/m 0 min 0 min 32 W/m 6,4 km/h (2 Bft) 93,62 %
21.11.2021 09:38 7,4 C 6,7 C 5,6 C 97 % 1012,3 hPa 0,0 l/m 0 min 0 min 31 W/m 6,4 km/h (2 Bft) 95,74 %
21.11.2021 09:40 7,4 C 6,7 C 5,6 C 97 % 1012,3 hPa 0,0 l/m 0 min 0 min 30 W/m 6,4 km/h (2 Bft) 95,74 %
21.11.2021 09:42 7,4 C 6,7 C 5,6 C 97 % 1012,4 hPa 0,0 l/m 0 min 0 min 33 W/m 3,2 km/h (1 Bft) 95,65 %
21.11.2021 09:44 7,4 C 6,7 C 5,6 C 97 % 1012,3 hPa 0,0 l/m 0 min 0 min 35 W/m 3,2 km/h (1 Bft) 97,87 %
21.11.2021 09:46 7,4 C 7,2 C 5,6 C 97 % 1012,2 hPa 0,0 l/m 0 min 0 min 36 W/m 3,2 km/h (1 Bft) 97,87 %
21.11.2021 09:48 7,4 C 7,2 C 5,6 C 97 % 1012,3 hPa 0,0 l/m 0 min 0 min 36 W/m 3,2 km/h (1 Bft) 95,74 %
21.11.2021 09:50 7,4 C 7,2 C 5,6 C 97 % 1012,2 hPa 0,0 l/m 0 min 0 min 34 W/m 3,2 km/h (1 Bft) 97,87 %
21.11.2021 09:52 7,4 C 7,2 C 5,6 C 97 % 1012,3 hPa 0,0 l/m 0 min 0 min 32 W/m 3,2 km/h (1 Bft) 95,74 %
21.11.2021 09:54 7,4 C 7,2 C 5,6 C 97 % 1012,3 hPa 0,0 l/m 0 min 0 min 32 W/m 3,2 km/h (1 Bft) 97,83 %
21.11.2021 09:56 7,5 C 7,2 C 5,6 C 97 % 1012,3 hPa 0,0 l/m 0 min 0 min 32 W/m 3,2 km/h (1 Bft) 97,87 %
21.11.2021 09:58 7,5 C 7,2 C 5,6 C 97 % 1012,3 hPa 0,0 l/m 0 min 0 min 32 W/m 6,4 km/h (2 Bft) 95,74 %
21.11.2021 10:00 7,5 C 7,2 C 5,6 C 97 % 1012,3 hPa 0,0 l/m 0 min 0 min 35 W/m 6,4 km/h (2 Bft) 97,87 %
21.11.2021 10:02 7,5 C 7,2 C 5,6 C 97 % 1012,3 hPa 0,0 l/m 0 min 0 min 40 W/m 0,0 km/h (0 Bft) 100,00 %
21.11.2021 10:04 7,5 C 7,2 C 5,6 C 97 % 1012,2 hPa 0,0 l/m 0 min 0 min 48 W/m 3,2 km/h (1 Bft) 100,00 %
21.11.2021 10:06 7,5 C 7,2 C 5,6 C 97 % 1012,3 hPa 0,0 l/m 0 min 0 min 54 W/m 3,2 km/h (1 Bft) 97,87 %
21.11.2021 10:08 7,5 C 7,2 C 5,6 C 97 % 1012,3 hPa 0,0 l/m 0 min 0 min 58 W/m 3,2 km/h (1 Bft) 100,00 %
21.11.2021 10:10 7,5 C 7,2 C 5,6 C 97 % 1012,3 hPa 0,0 l/m 0 min 0 min 54 W/m 6,4 km/h (2 Bft) 97,87 %
21.11.2021 10:12 7,5 C 7,2 C 5,6 C 97 % 1012,3 hPa 0,0 l/m 0 min 0 min 48 W/m 6,4 km/h (2 Bft) 100,00 %
21.11.2021 10:14 7,6 C 7,2 C 5,6 C 97 % 1012,3 hPa 0,0 l/m 0 min 0 min 42 W/m 3,2 km/h (1 Bft) 100,00 %
21.11.2021 10:16 7,6 C 7,2 C 5,6 C 97 % 1012,3 hPa 0,0 l/m 0 min 0 min 41 W/m 3,2 km/h (1 Bft) 37,50 %
21.11.2021 10:18 7,6 C 7,2 C 5,6 C 97 % 1012,4 hPa 0,0 l/m 0 min 0 min 48 W/m 6,4 km/h (2 Bft) 100,00 %
21.11.2021 10:20 7,6 C 7,2 C 5,6 C 98 % 1012,4 hPa 0,0 l/m 0 min 0 min 44 W/m 6,4 km/h (2 Bft) 100,00 %
21.11.2021 10:22 7,6 C 7,2 C 6,1 C 98 % 1012,4 hPa 0,0 l/m 0 min 0 min 35 W/m 6,4 km/h (2 Bft) 100,00 %
21.11.2021 10:24 7,6 C 7,2 C 6,1 C 98 % 1012,4 hPa 0,0 l/m 0 min 0 min 32 W/m 6,4 km/h (2 Bft) 100,00 %
21.11.2021 10:26 7,6 C 7,2 C 5,6 C 98 % 1012,5 hPa 0,0 l/m 0 min 0 min 38 W/m 3,2 km/h (1 Bft) 100,00 %
21.11.2021 10:28 7,6 C 7,2 C 6,1 C 98 % 1012,5 hPa 0,0 l/m 0 min 0 min 53 W/m 6,4 km/h (2 Bft) 100,00 %
21.11.2021 10:30 7,6 C 7,2 C 6,1 C 98 % 1012,5 hPa 0,0 l/m 0 min 0 min 68 W/m 9,7 km/h (2 Bft) 100,00 %
21.11.2021 10:32 7,7 C 7,2 C 6,1 C 98 % 1012,4 hPa 0,0 l/m 0 min 0 min 77 W/m 6,4 km/h (2 Bft) 100,00 %
21.11.2021 10:34 7,7 C 7,2 C 6,1 C 98 % 1012,4 hPa 0,0 l/m 0 min 0 min 85 W/m 3,2 km/h (1 Bft) 100,00 %
21.11.2021 10:36 7,7 C 7,2 C 6,1 C 98 % 1012,5 hPa 0,0 l/m 0 min 0 min 85 W/m 3,2 km/h (1 Bft) 100,00 %
21.11.2021 10:38 7,8 C 7,8 C 6,1 C 98 % 1012,5 hPa 0,0 l/m 0 min 0 min 82 W/m 3,2 km/h (1 Bft) 100,00 %
21.11.2021 10:40 7,8 C 7,8 C 6,1 C 98 % 1012,5 hPa 0,0 l/m 0 min 0 min 79 W/m 6,4 km/h (2 Bft) 97,83 %
21.11.2021 10:42 7,8 C 7,8 C 6,1 C 98 % 1012,5 hPa 0,0 l/m 0 min 0 min 86 W/m 12,9 km/h (3 Bft) 97,87 %
21.11.2021 10:44 7,8 C 7,8 C 6,1 C 98 % 1012,5 hPa 0,0 l/m 0 min 0 min 89 W/m 3,2 km/h (1 Bft) 97,87 %
21.11.2021 10:46 7,9 C 7,8 C 6,1 C 98 % 1012,5 hPa 0,0 l/m 0 min 0 min 84 W/m 6,4 km/h (2 Bft) 100,00 %
21.11.2021 10:48 7,9 C 7,8 C 6,1 C 98 % 1012,6 hPa 0,0 l/m 0 min 0 min 77 W/m 3,2 km/h (1 Bft) 100,00 %
21.11.2021 10:50 7,9 C 7,8 C 6,1 C 98 % 1012,6 hPa 0,0 l/m 0 min 0 min 78 W/m 6,4 km/h (2 Bft) 100,00 %
21.11.2021 10:52 7,9 C 7,8 C 6,1 C 98 % 1012,6 hPa 0,0 l/m 0 min 0 min 83 W/m 6,4 km/h (2 Bft) 100,00 %
21.11.2021 10:54 8,0 C 7,8 C 6,1 C 98 % 1012,7 hPa 0,0 l/m 0 min 0 min 81 W/m 9,7 km/h (2 Bft) 100,00 %
21.11.2021 10:56 8,0 C 7,8 C 6,7 C 98 % 1012,6 hPa 0,0 l/m 0 min 0 min 84 W/m 6,4 km/h (2 Bft) 100,00 %
21.11.2021 10:58 8,0 C 7,8 C 6,7 C 98 % 1012,6 hPa 0,0 l/m 0 min 0 min 91 W/m 6,4 km/h (2 Bft) 100,00 %
21.11.2021 11:00 8,0 C 7,8 C 6,7 C 98 % 1012,6 hPa 0,0 l/m 0 min 0 min 90 W/m 6,4 km/h (2 Bft) 100,00 %
21.11.2021 11:02 8,0 C 7,8 C 6,7 C 98 % 1012,6 hPa 0,0 l/m 0 min 0 min 88 W/m 6,4 km/h (2 Bft) 100,00 %
21.11.2021 11:04 8,1 C 7,8 C 6,7 C 98 % 1012,6 hPa 0,0 l/m 0 min 0 min 86 W/m 3,2 km/h (1 Bft) 100,00 %
21.11.2021 11:06 8,1 C 7,8 C 6,7 C 98 % 1012,5 hPa 0,0 l/m 0 min 0 min 88 W/m 6,4 km/h (2 Bft) 100,00 %
21.11.2021 11:08 8,1 C 8,3 C 6,7 C 98 % 1012,6 hPa 0,0 l/m 0 min 0 min 87 W/m 6,4 km/h (2 Bft) 100,00 %
21.11.2021 11:10 8,1 C 7,8 C 6,7 C 98 % 1012,6 hPa 0,0 l/m 0 min 0 min 78 W/m 6,4 km/h (2 Bft) 97,87 %
21.11.2021 11:12 8,1 C 7,8 C 6,7 C 98 % 1012,6 hPa 0,0 l/m 0 min 0 min 68 W/m 6,4 km/h (2 Bft) 95,74 %
21.11.2021 11:14 8,1 C 7,8 C 6,7 C 98 % 1012,6 hPa 0,0 l/m 0 min 0 min 74 W/m 12,9 km/h (3 Bft) 97,87 %
21.11.2021 11:16 8,2 C 8,3 C 6,7 C 98 % 1012,5 hPa 0,0 l/m 0 min 0 min 84 W/m 12,9 km/h (3 Bft) 97,83 %
21.11.2021 11:18 8,2 C 7,8 C 6,7 C 98 % 1012,6 hPa 0,0 l/m 0 min 0 min 88 W/m 9,7 km/h (2 Bft) 97,87 %
21.11.2021 11:20 8,2 C 8,3 C 6,7 C 98 % 1012,6 hPa 0,0 l/m 0 min 0 min 84 W/m 6,4 km/h (2 Bft) 97,87 %
21.11.2021 11:22 8,3 C 8,3 C 6,7 C 98 % 1012,6 hPa 0,0 l/m 0 min 0 min 83 W/m 6,4 km/h (2 Bft) 95,74 %
21.11.2021 11:24 8,3 C 8,3 C 6,7 C 98 % 1012,6 hPa 0,0 l/m 0 min 0 min 76 W/m 6,4 km/h (2 Bft) 95,74 %
21.11.2021 11:26 8,3 C 8,3 C 6,7 C 98 % 1012,6 hPa 0,0 l/m 0 min 0 min 69 W/m 6,4 km/h (2 Bft) 95,65 %
21.11.2021 11:28 8,3 C 8,3 C 6,7 C 98 % 1012,7 hPa 0,0 l/m 0 min 0 min 60 W/m 3,2 km/h (1 Bft) 97,87 %
21.11.2021 11:30 8,3 C 8,3 C 6,7 C 98 % 1012,7 hPa 0,0 l/m 0 min 0 min 55 W/m 6,4 km/h (2 Bft) 93,62 %
21.11.2021 11:32 8,4 C 8,3 C 6,7 C 98 % 1012,6 hPa 0,0 l/m 0 min 2 min 55 W/m 9,7 km/h (2 Bft) 95,74 %
21.11.2021 11:34 8,4 C 8,3 C 6,7 C 98 % 1012,6 hPa 0,0 l/m 0 min 2 min 53 W/m 3,2 km/h (1 Bft) 93,62 %
21.11.2021 11:36 8,4 C 8,3 C 6,7 C 98 % 1012,6 hPa 0,0 l/m 0 min 2 min 52 W/m 3,2 km/h (1 Bft) 93,62 %
21.11.2021 11:38 8,4 C 8,3 C 6,7 C 98 % 1012,6 hPa 0,0 l/m 0 min 2 min 48 W/m 6,4 km/h (2 Bft) 96,00 %
21.11.2021 11:40 8,4 C 8,3 C 6,7 C 98 % 1012,6 hPa 0,0 l/m 0 min 0 min 53 W/m 9,7 km/h (2 Bft) 95,74 %
21.11.2021 11:42 8,4 C 8,3 C 6,7 C 98 % 1012,6 hPa 0,0 l/m 0 min 2 min 52 W/m 9,7 km/h (2 Bft) 95,74 %
21.11.2021 11:44 8,4 C 8,3 C 6,7 C 98 % 1012,5 hPa 0,0 l/m 0 min 0 min 52 W/m 12,9 km/h (3 Bft) 97,87 %
21.11.2021 11:46 8,4 C 8,3 C 6,7 C 98 % 1012,5 hPa 0,0 l/m 0 min 0 min 51 W/m 6,4 km/h (2 Bft) 97,87 %
21.11.2021 11:48 8,4 C 8,3 C 6,7 C 98 % 1012,5 hPa 0,0 l/m 0 min 0 min 53 W/m 9,7 km/h (2 Bft) 97,87 %
21.11.2021 11:50 8,4 C 8,3 C 6,7 C 98 % 1012,5 hPa 0,0 l/m 0 min 0 min 51 W/m 3,2 km/h (1 Bft) 97,83 %
21.11.2021 11:52 8,5 C 8,3 C 6,7 C 98 % 1012,5 hPa 0,0 l/m 0 min 0 min 47 W/m 6,4 km/h (2 Bft) 95,74 %
21.11.2021 11:54 8,5 C 8,3 C 6,7 C 98 % 1012,5 hPa 0,0 l/m 0 min 0 min 52 W/m 6,4 km/h (2 Bft) 97,87 %
21.11.2021 11:56 8,5 C 8,3 C 6,7 C 98 % 1012,5 hPa 0,0 l/m 0 min 0 min 65 W/m 6,4 km/h (2 Bft) 97,87 %
21.11.2021 11:58 8,5 C 8,3 C 6,7 C 98 % 1012,5 hPa 0,0 l/m 0 min 0 min 75 W/m 6,4 km/h (2 Bft) 97,87 %
21.11.2021 12:00 8,5 C 8,3 C 6,7 C 98 % 1012,5 hPa 0,0 l/m 0 min 0 min 84 W/m 6,4 km/h (2 Bft) 97,83 %
21.11.2021 12:02 8,5 C 8,3 C 6,7 C 98 % 1012,5 hPa 0,0 l/m 0 min 0 min 86 W/m 6,4 km/h (2 Bft) 97,87 %
21.11.2021 12:04 8,6 C 8,3 C 7,2 C 98 % 1012,5 hPa 0,0 l/m 0 min 0 min 86 W/m 6,4 km/h (2 Bft) 95,74 %
21.11.2021 12:07 8,6 C 8,3 C 7,2 C 98 % 1012,6 hPa 0,0 l/m 0 min 0 min 83 W/m 6,4 km/h (2 Bft) 95,71 %
21.11.2021 12:08 8,6 C 8,3 C 7,2 C 98 % 1012,6 hPa 0,0 l/m 0 min 0 min 80 W/m 6,4 km/h (2 Bft) 95,83 %
21.11.2021 12:10 8,6 C 8,3 C 7,2 C 98 % 1012,6 hPa 0,0 l/m 0 min 0 min 75 W/m 9,7 km/h (2 Bft) 95,74 %
21.11.2021 12:12 8,6 C 8,3 C 7,2 C 98 % 1012,6 hPa 0,0 l/m 0 min 0 min 74 W/m 9,7 km/h (2 Bft) 95,65 %
21.11.2021 12:14 8,7 C 8,3 C 7,2 C 98 % 1012,6 hPa 0,0 l/m 0 min 0 min 76 W/m 6,4 km/h (2 Bft) 95,74 %
21.11.2021 12:16 8,7 C 8,3 C 7,2 C 98 % 1012,5 hPa 0,0 l/m 0 min 0 min 78 W/m 9,7 km/h (2 Bft) 95,74 %
21.11.2021 12:18 8,7 C 8,3 C 7,2 C 98 % 1012,5 hPa 0,0 l/m 0 min 0 min 81 W/m 6,4 km/h (2 Bft) 97,87 %
21.11.2021 12:20 8,7 C 8,9 C 7,2 C 98 % 1012,5 hPa 0,0 l/m 0 min 0 min 84 W/m 6,4 km/h (2 Bft) 97,87 %
21.11.2021 12:22 8,8 C 8,9 C 7,2 C 98 % 1012,5 hPa 0,0 l/m 0 min 0 min 82 W/m 6,4 km/h (2 Bft) 97,87 %
21.11.2021 12:24 8,8 C 8,9 C 7,2 C 98 % 1012,5 hPa 0,0 l/m 0 min 0 min 85 W/m 9,7 km/h (2 Bft) 95,65 %
21.11.2021 12:26 8,8 C 8,9 C 7,2 C 98 % 1012,5 hPa 0,0 l/m 0 min 0 min 94 W/m 9,7 km/h (2 Bft) 97,87 %
21.11.2021 12:28 8,8 C 8,9 C 7,2 C 98 % 1012,5 hPa 0,0 l/m 0 min 0 min 98 W/m 12,9 km/h (3 Bft) 95,74 %
21.11.2021 12:30 8,8 C 8,9 C 7,2 C 98 % 1012,5 hPa 0,0 l/m 0 min 0 min 105 W/m 6,4 km/h (2 Bft) 97,87 %
21.11.2021 12:32 8,8 C 8,9 C 7,2 C 98 % 1012,5 hPa 0,0 l/m 0 min 0 min 116 W/m 9,7 km/h (2 Bft) 97,87 %
21.11.2021 12:34 8,8 C 8,9 C 7,2 C 98 % 1012,5 hPa 0,0 l/m 0 min 0 min 121 W/m 16,1 km/h (3 Bft) 97,87 %
21.11.2021 12:36 8,8 C 8,9 C 7,2 C 98 % 1012,5 hPa 0,0 l/m 0 min 0 min 118 W/m 16,1 km/h (3 Bft) 97,83 %
21.11.2021 12:38 8,8 C 8,9 C 7,2 C 98 % 1012,5 hPa 0,0 l/m 0 min 0 min 111 W/m 3,2 km/h (1 Bft) 97,87 %
21.11.2021 12:40 8,8 C 8,9 C 7,2 C 98 % 1012,5 hPa 0,0 l/m 0 min 0 min 107 W/m 6,4 km/h (2 Bft) 95,74 %
21.11.2021 12:42 8,8 C 8,9 C 7,2 C 98 % 1012,5 hPa 0,0 l/m 0 min 0 min 106 W/m 6,4 km/h (2 Bft) 97,87 %
21.11.2021 12:44 8,8 C 8,9 C 7,2 C 98 % 1012,5 hPa 0,0 l/m 0 min 0 min 111 W/m 6,4 km/h (2 Bft) 97,87 %
21.11.2021 12:46 8,8 C 8,9 C 7,2 C 98 % 1012,5 hPa 0,0 l/m 0 min 0 min 115 W/m 16,1 km/h (3 Bft) 95,74 %
21.11.2021 12:48 8,8 C 9,4 C 7,2 C 98 % 1012,5 hPa 0,0 l/m 0 min 0 min 116 W/m 9,7 km/h (2 Bft) 97,83 %
21.11.2021 12:50 8,8 C 9,4 C 7,2 C 98 % 1012,5 hPa 0,0 l/m 0 min 0 min 114 W/m 9,7 km/h (2 Bft) 97,87 %
21.11.2021 12:52 8,8 C 9,4 C 7,2 C 98 % 1012,5 hPa 0,0 l/m 0 min 0 min 108 W/m 12,9 km/h (3 Bft) 95,74 %
21.11.2021 12:54 8,8 C 9,4 C 7,2 C 98 % 1012,5 hPa 0,0 l/m 0 min 0 min 101 W/m 9,7 km/h (2 Bft) 97,87 %
21.11.2021 12:56 8,8 C 9,4 C 7,2 C 98 % 1012,5 hPa 0,0 l/m 0 min 0 min 99 W/m 12,9 km/h (3 Bft) 97,87 %
21.11.2021 12:58 8,8 C 9,4 C 7,2 C 98 % 1012,5 hPa 0,0 l/m 0 min 0 min 100 W/m 16,1 km/h (3 Bft) 97,83 %
21.11.2021 13:00 8,8 C 8,9 C 7,2 C 98 % 1012,5 hPa 0,0 l/m 0 min 0 min 100 W/m 9,7 km/h (2 Bft) 97,87 %
21.11.2021 13:02 8,8 C 9,4 C 7,2 C 98 % 1012,5 hPa 0,0 l/m 0 min 0 min 101 W/m 6,4 km/h (2 Bft) 100,00 %
21.11.2021 13:04 8,8 C 8,9 C 7,2 C 98 % 1012,5 hPa 0,0 l/m 0 min 0 min 101 W/m 6,4 km/h (2 Bft) 100,00 %
21.11.2021 13:06 8,8 C 9,4 C 7,2 C 98 % 1012,5 hPa 0,0 l/m 0 min 0 min 105 W/m 6,4 km/h (2 Bft) 100,00 %
21.11.2021 13:08 8,8 C 9,4 C 7,2 C 98 % 1012,6 hPa 0,0 l/m 0 min 0 min 105 W/m 9,7 km/h (2 Bft) 97,87 %
21.11.2021 13:10 8,8 C 9,4 C 7,2 C 98 % 1012,6 hPa 0,0 l/m 0 min 0 min 104 W/m 12,9 km/h (3 Bft) 93,48 %
21.11.2021 13:12 8,8 C 9,4 C 7,2 C 97 % 1012,5 hPa 0,0 l/m 0 min 0 min 102 W/m 6,4 km/h (2 Bft) 97,87 %
21.11.2021 13:14 8,8 C 9,4 C 7,2 C 97 % 1012,5 hPa 0,0 l/m 0 min 0 min 103 W/m 6,4 km/h (2 Bft) 97,87 %
21.11.2021 13:16 8,8 C 9,4 C 7,2 C 97 % 1012,5 hPa 0,0 l/m 0 min 0 min 99 W/m 6,4 km/h (2 Bft) 97,87 %
21.11.2021 13:18 8,9 C 9,4 C 7,2 C 97 % 1012,5 hPa 0,0 l/m 0 min 0 min 97 W/m 16,1 km/h (3 Bft) 95,74 %
21.11.2021 13:20 8,9 C 9,4 C 7,2 C 97 % 1012,5 hPa 0,0 l/m 0 min 0 min 93 W/m 12,9 km/h (3 Bft) 97,87 %
21.11.2021 13:22 8,9 C 9,4 C 7,2 C 97 % 1012,5 hPa 0,0 l/m 0 min 0 min 90 W/m 16,1 km/h (3 Bft) 97,83 %
21.11.2021 13:24 8,9 C 9,4 C 7,2 C 97 % 1012,5 hPa 0,0 l/m 0 min 0 min 88 W/m 3,2 km/h (1 Bft) 97,87 %
21.11.2021 13:26 8,9 C 9,4 C 7,2 C 97 % 1012,5 hPa 0,0 l/m 0 min 0 min 90 W/m 6,4 km/h (2 Bft) 97,87 %
21.11.2021 13:28 8,9 C 9,4 C 7,2 C 97 % 1012,5 hPa 0,0 l/m 0 min 0 min 91 W/m 9,7 km/h (2 Bft) 97,87 %
21.11.2021 13:30 8,9 C 9,4 C 7,2 C 97 % 1012,5 hPa 0,0 l/m 0 min 0 min 91 W/m 9,7 km/h (2 Bft) 97,87 %
21.11.2021 13:32 8,9 C 9,4 C 7,2 C 97 % 1012,4 hPa 0,0 l/m 0 min 0 min 89 W/m 6,4 km/h (2 Bft) 97,87 %
21.11.2021 13:34 8,9 C 9,4 C 7,2 C 97 % 1012,4 hPa 0,0 l/m 0 min 0 min 88 W/m 3,2 km/h (1 Bft) 97,83 %
21.11.2021 13:36 8,9 C 9,4 C 7,2 C 97 % 1012,4 hPa 0,0 l/m 0 min 0 min 89 W/m 6,4 km/h (2 Bft) 97,87 %
21.11.2021 13:38 8,9 C 9,4 C 7,2 C 97 % 1012,5 hPa 0,0 l/m 0 min 0 min 88 W/m 9,7 km/h (2 Bft) 97,87 %
21.11.2021 13:40 8,9 C 9,4 C 7,2 C 97 % 1012,4 hPa 0,0 l/m 0 min 0 min 85 W/m 6,4 km/h (2 Bft) 100,00 %
21.11.2021 13:42 8,9 C 9,4 C 7,2 C 97 % 1012,5 hPa 0,0 l/m 0 min 0 min 84 W/m 6,4 km/h (2 Bft) 100,00 %
21.11.2021 13:44 9,0 C 9,4 C 7,2 C 96 % 1012,4 hPa 0,0 l/m 0 min 0 min 84 W/m 12,9 km/h (3 Bft) 100,00 %
21.11.2021 13:46 8,9 C 9,4 C 7,2 C 96 % 1012,4 hPa 0,0 l/m 0 min 0 min 86 W/m 9,7 km/h (2 Bft) 97,83 %
21.11.2021 13:48 8,9 C 9,4 C 7,2 C 96 % 1012,4 hPa 0,0 l/m 0 min 0 min 97 W/m 9,7 km/h (2 Bft) 97,87 %
21.11.2021 13:50 8,8 C 9,4 C 7,2 C 96 % 1012,4 hPa 0,0 l/m 0 min 0 min 104 W/m 12,9 km/h (3 Bft) 100,00 %
21.11.2021 13:52 8,8 C 9,4 C 7,2 C 95 % 1012,4 hPa 0,0 l/m 0 min 0 min 115 W/m 12,9 km/h (3 Bft) 100,00 %
21.11.2021 13:54 8,8 C 9,4 C 7,2 C 95 % 1012,4 hPa 0,0 l/m 0 min 0 min 114 W/m 16,1 km/h (3 Bft) 100,00 %
21.11.2021 13:56 8,8 C 9,4 C 7,2 C 95 % 1012,4 hPa 0,0 l/m 0 min 0 min 101 W/m 12,9 km/h (3 Bft) 100,00 %
21.11.2021 13:58 8,8 C 9,4 C 7,2 C 95 % 1012,4 hPa 0,0 l/m 0 min 0 min 87 W/m 9,7 km/h (2 Bft) 97,83 %
21.11.2021 14:00 8,8 C 8,9 C 7,2 C 94 % 1012,4 hPa 0,0 l/m 0 min 0 min 76 W/m 12,9 km/h (3 Bft) 100,00 %
21.11.2021 14:02 8,8 C 8,9 C 6,7 C 94 % 1012,4 hPa 0,0 l/m 0 min 0 min 71 W/m 6,4 km/h (2 Bft) 97,87 %
21.11.2021 14:04 8,8 C 8,9 C 6,7 C 93 % 1012,4 hPa 0,0 l/m 0 min 0 min 72 W/m 16,1 km/h (3 Bft) 97,87 %
21.11.2021 14:06 8,8 C 8,9 C 6,7 C 93 % 1012,4 hPa 0,0 l/m 0 min 0 min 77 W/m 16,1 km/h (3 Bft) 97,87 %
21.11.2021 14:08 8,8 C 8,9 C 6,7 C 93 % 1012,4 hPa 0,0 l/m 0 min 0 min 84 W/m 9,7 km/h (2 Bft) 100,00 %
21.11.2021 14:10 8,8 C 8,9 C 6,7 C 92 % 1012,5 hPa 0,0 l/m 0 min 0 min 90 W/m 12,9 km/h (3 Bft) 97,87 %
21.11.2021 14:12 8,8 C 8,9 C 6,7 C 92 % 1012,4 hPa 0,0 l/m 0 min 0 min 96 W/m 6,4 km/h (2 Bft) 95,74 %
21.11.2021 14:14 8,8 C 9,4 C 6,7 C 92 % 1012,4 hPa 0,0 l/m 0 min 0 min 102 W/m 6,4 km/h (2 Bft) 97,87 %
21.11.2021 14:16 8,8 C 9,4 C 6,7 C 91 % 1012,4 hPa 0,0 l/m 0 min 0 min 104 W/m 6,4 km/h (2 Bft) 97,87 %
21.11.2021 14:18 8,8 C 9,4 C 6,7 C 91 % 1012,4 hPa 0,0 l/m 0 min 0 min 100 W/m 3,2 km/h (1 Bft) 95,74 %
21.11.2021 14:20 8,8 C 9,4 C 6,7 C 91 % 1012,4 hPa 0,0 l/m 0 min 0 min 98 W/m 6,4 km/h (2 Bft) 97,83 %
21.11.2021 14:22 8,9 C 9,4 C 6,7 C 91 % 1012,5 hPa 0,0 l/m 0 min 0 min 95 W/m 9,7 km/h (2 Bft) 97,87 %
21.11.2021 14:24 8,9 C 9,4 C 6,7 C 91 % 1012,4 hPa 0,0 l/m 0 min 0 min 99 W/m 12,9 km/h (3 Bft) 97,87 %
21.11.2021 14:26 8,9 C 9,4 C 6,7 C 90 % 1012,4 hPa 0,0 l/m 0 min 0 min 98 W/m 12,9 km/h (3 Bft) 97,87 %
21.11.2021 14:28 8,9 C 9,4 C 6,7 C 90 % 1012,4 hPa 0,0 l/m 0 min 0 min 98 W/m 6,4 km/h (2 Bft) 97,87 %
21.11.2021 14:30 8,9 C 9,4 C 6,7 C 90 % 1012,4 hPa 0,0 l/m 0 min 0 min 108 W/m 9,7 km/h (2 Bft) 97,87 %
21.11.2021 14:32 8,9 C 9,4 C 6,7 C 90 % 1012,4 hPa 0,0 l/m 0 min 0 min 106 W/m 12,9 km/h (3 Bft) 97,83 %
21.11.2021 14:34 8,9 C 10,6 C 6,7 C 90 % 1012,5 hPa 0,0 l/m 2 min 0 min 171 W/m 6,4 km/h (2 Bft) 97,87 %
21.11.2021 14:36 8,9 C 10,6 C 6,7 C 89 % 1012,5 hPa 0,0 l/m 2 min 0 min 146 W/m 9,7 km/h (2 Bft) 97,87 %
21.11.2021 14:38 9,0 C 10,6 C 6,7 C 89 % 1012,5 hPa 0,0 l/m 0 min 0 min 100 W/m 12,9 km/h (3 Bft) 95,74 %
21.11.2021 14:40 9,0 C 10,0 C 6,7 C 89 % 1012,5 hPa 0,0 l/m 0 min 0 min 102 W/m 6,4 km/h (2 Bft) 95,74 %
21.11.2021 14:42 9,0 C 10,6 C 6,7 C 89 % 1012,4 hPa 0,0 l/m 0 min 0 min 104 W/m 12,9 km/h (3 Bft) 97,87 %
21.11.2021 14:44 9,0 C 10,6 C 6,7 C 88 % 1012,5 hPa 0,0 l/m 2 min 0 min 206 W/m 9,7 km/h (2 Bft) 95,65 %
21.11.2021 14:46 9,0 C 10,0 C 6,7 C 88 % 1012,5 hPa 0,0 l/m 0 min 0 min 92 W/m 6,4 km/h (2 Bft) 97,87 %
21.11.2021 14:48 9,0 C 10,0 C 6,7 C 88 % 1012,5 hPa 0,0 l/m 0 min 0 min 85 W/m 3,2 km/h (1 Bft) 97,87 %
21.11.2021 14:50 9,0 C 10,0 C 6,7 C 87 % 1012,5 hPa 0,0 l/m 0 min 0 min 87 W/m 9,7 km/h (2 Bft) 97,87 %
21.11.2021 14:52 9,1 C 10,0 C 6,7 C 87 % 1012,5 hPa 0,0 l/m 0 min 0 min 96 W/m 6,4 km/h (2 Bft) 97,87 %
21.11.2021 14:54 9,1 C 10,0 C 6,7 C 87 % 1012,4 hPa 0,0 l/m 0 min 0 min 96 W/m 6,4 km/h (2 Bft) 100,00 %
21.11.2021 14:56 9,1 C 9,4 C 6,7 C 87 % 1012,4 hPa 0,0 l/m 0 min 0 min 91 W/m 6,4 km/h (2 Bft) 95,74 %
21.11.2021 14:58 9,1 C 9,4 C 6,7 C 87 % 1012,5 hPa 0,0 l/m 0 min 0 min 84 W/m 9,7 km/h (2 Bft) 100,00 %
21.11.2021 15:00 9,1 C 9,4 C 6,7 C 87 % 1012,5 hPa 0,0 l/m 0 min 0 min 77 W/m 12,9 km/h (3 Bft) 100,00 %
21.11.2021 15:02 9,1 C 9,4 C 6,7 C 87 % 1012,5 hPa 0,0 l/m 0 min 0 min 74 W/m 12,9 km/h (3 Bft) 100,00 %
21.11.2021 15:04 9,1 C 8,9 C 6,7 C 87 % 1012,5 hPa 0,0 l/m 0 min 0 min 70 W/m 12,9 km/h (3 Bft) 100,00 %
21.11.2021 15:06 9,1 C 8,9 C 6,7 C 87 % 1012,5 hPa 0,0 l/m 0 min 0 min 67 W/m 9,7 km/h (2 Bft) 97,83 %
21.11.2021 15:08 9,1 C 8,9 C 6,7 C 87 % 1012,6 hPa 0,0 l/m 0 min 0 min 65 W/m 9,7 km/h (2 Bft) 97,87 %
21.11.2021 15:10 9,1 C 8,9 C 6,7 C 86 % 1012,6 hPa 0,0 l/m 0 min 0 min 66 W/m 12,9 km/h (3 Bft) 95,74 %
21.11.2021 15:12 9,1 C 8,9 C 6,7 C 86 % 1012,6 hPa 0,0 l/m 0 min 0 min 65 W/m 9,7 km/h (2 Bft) 95,74 %
21.11.2021 15:14 9,0 C 8,9 C 6,7 C 86 % 1012,6 hPa 0,0 l/m 0 min 0 min 61 W/m 16,1 km/h (3 Bft) 95,74 %
21.11.2021 15:16 9,0 C 8,9 C 6,7 C 86 % 1012,5 hPa 0,0 l/m 0 min 0 min 56 W/m 9,7 km/h (2 Bft) 91,49 %
21.11.2021 15:18 9,0 C 8,3 C 6,7 C 86 % 1012,6 hPa 0,0 l/m 0 min 0 min 51 W/m 6,4 km/h (2 Bft) 95,65 %
21.11.2021 15:20 9,0 C 8,3 C 6,7 C 86 % 1012,6 hPa 0,0 l/m 0 min 0 min 47 W/m 16,1 km/h (3 Bft) 95,74 %
21.11.2021 15:22 9,0 C 8,3 C 6,7 C 86 % 1012,6 hPa 0,0 l/m 0 min 0 min 47 W/m 19,3 km/h (3 Bft) 95,74 %
21.11.2021 15:24 9,0 C 8,3 C 6,7 C 86 % 1012,6 hPa 0,0 l/m 0 min 0 min 47 W/m 16,1 km/h (3 Bft) 95,74 %
21.11.2021 15:26 9,0 C 8,3 C 6,7 C 86 % 1012,6 hPa 0,0 l/m 0 min 0 min 46 W/m 12,9 km/h (3 Bft) 95,74 %
21.11.2021 15:28 8,9 C 8,3 C 6,7 C 86 % 1012,7 hPa 0,0 l/m 0 min 0 min 42 W/m 12,9 km/h (3 Bft) 93,62 %
21.11.2021 15:30 8,9 C 8,3 C 6,7 C 86 % 1012,7 hPa 0,0 l/m 0 min 0 min 40 W/m 3,2 km/h (1 Bft) 95,65 %
21.11.2021 15:32 8,9 C 8,3 C 6,7 C 86 % 1012,7 hPa 0,0 l/m 0 min 0 min 39 W/m 12,9 km/h (3 Bft) 95,74 %
21.11.2021 15:34 8,9 C 8,3 C 6,7 C 86 % 1012,7 hPa 0,0 l/m 0 min 0 min 38 W/m 9,7 km/h (2 Bft) 89,36 %
21.11.2021 15:36 8,9 C 8,3 C 6,7 C 86 % 1012,7 hPa 0,0 l/m 0 min 0 min 34 W/m 6,4 km/h (2 Bft) 95,74 %
21.11.2021 15:38 8,9 C 8,3 C 6,7 C 86 % 1012,7 hPa 0,0 l/m 0 min 0 min 29 W/m 6,4 km/h (2 Bft) 95,74 %
21.11.2021 15:40 8,9 C 8,3 C 6,7 C 86 % 1012,7 hPa 0,0 l/m 0 min 0 min 28 W/m 16,1 km/h (3 Bft) 97,87 %
21.11.2021 15:42 8,9 C 8,3 C 6,7 C 86 % 1012,7 hPa 0,0 l/m 0 min 0 min 26 W/m 12,9 km/h (3 Bft) 95,65 %
21.11.2021 15:44 8,9 C 8,3 C 6,7 C 86 % 1012,7 hPa 0,0 l/m 0 min 0 min 27 W/m 9,7 km/h (2 Bft) 97,87 %
21.11.2021 15:46 8,8 C 8,3 C 6,7 C 86 % 1012,7 hPa 0,0 l/m 0 min 0 min 26 W/m 9,7 km/h (2 Bft) 97,87 %
21.11.2021 15:48 8,8 C 8,3 C 6,7 C 86 % 1012,7 hPa 0,0 l/m 0 min 0 min 26 W/m 9,7 km/h (2 Bft) 95,74 %
21.11.2021 15:50 8,8 C 7,8 C 6,7 C 86 % 1012,7 hPa 0,0 l/m 0 min 0 min 25 W/m 3,2 km/h (1 Bft) 97,87 %
21.11.2021 15:52 8,8 C 7,8 C 6,7 C 86 % 1012,7 hPa 0,0 l/m 0 min 0 min 25 W/m 3,2 km/h (1 Bft) 95,74 %
21.11.2021 15:54 8,8 C 7,8 C 6,1 C 86 % 1012,7 hPa 0,0 l/m 0 min 0 min 25 W/m 6,4 km/h (2 Bft) 97,83 %
21.11.2021 15:56 8,8 C 7,8 C 6,1 C 87 % 1012,7 hPa 0,0 l/m 0 min 0 min 25 W/m 9,7 km/h (2 Bft) 97,87 %
21.11.2021 15:58 8,8 C 7,8 C 6,1 C 87 % 1012,7 hPa 0,0 l/m 0 min 0 min 25 W/m 3,2 km/h (1 Bft) 100,00 %
21.11.2021 16:00 8,8 C 7,8 C 6,1 C 87 % 1012,8 hPa 0,0 l/m 0 min 0 min 25 W/m 3,2 km/h (1 Bft) 97,87 %
21.11.2021 16:02 8,7 C 7,8 C 6,1 C 87 % 1012,8 hPa 0,0 l/m 0 min 0 min 25 W/m 3,2 km/h (1 Bft) 100,00 %
21.11.2021 16:04 8,7 C 7,8 C 6,1 C 87 % 1012,8 hPa 0,0 l/m 0 min 0 min 25 W/m 6,4 km/h (2 Bft) 100,00 %
21.11.2021 16:06 8,7 C 7,8 C 6,1 C 87 % 1012,8 hPa 0,0 l/m 0 min 0 min 26 W/m 3,2 km/h (1 Bft) 97,83 %
21.11.2021 16:08 8,6 C 7,8 C 6,1 C 87 % 1012,8 hPa 0,0 l/m 2 min 0 min 27 W/m 6,4 km/h (2 Bft) 97,87 %
21.11.2021 16:10 8,6 C 7,8 C 6,1 C 87 % 1012,8 hPa 0,0 l/m 2 min 0 min 26 W/m 6,4 km/h (2 Bft) 97,87 %
21.11.2021 16:12 8,6 C 7,8 C 6,1 C 87 % 1012,8 hPa 0,0 l/m 0 min 0 min 22 W/m 3,2 km/h (1 Bft) 97,87 %
21.11.2021 16:14 8,6 C 7,8 C 6,1 C 87 % 1012,8 hPa 0,0 l/m 0 min 0 min 20 W/m 3,2 km/h (1 Bft) 100,00 %
21.11.2021 16:16 8,6 C 7,8 C 6,1 C 87 % 1012,9 hPa 0,0 l/m 0 min 0 min 18 W/m 3,2 km/h (1 Bft) 100,00 %
21.11.2021 16:18 8,6 C 7,8 C 6,1 C 87 % 1012,9 hPa 0,0 l/m 0 min 0 min 16 W/m 6,4 km/h (2 Bft) 100,00 %
21.11.2021 16:20 8,5 C 7,8 C 6,1 C 87 % 1012,9 hPa 0,0 l/m 0 min 0 min 14 W/m 0,0 km/h (0 Bft) 100,00 %
21.11.2021 16:22 8,5 C 7,8 C 6,1 C 87 % 1012,9 hPa 0,0 l/m 0 min 0 min 12 W/m 0,0 km/h (0 Bft) 100,00 %
21.11.2021 16:24 8,5 C 7,2 C 5,6 C 87 % 1012,9 hPa 0,0 l/m 0 min 0 min 11 W/m 0,0 km/h (0 Bft) 100,00 %
21.11.2021 16:26 8,5 C 7,2 C 5,6 C 87 % 1013,0 hPa 0,0 l/m 0 min 0 min 10 W/m 3,2 km/h (1 Bft) 100,00 %
21.11.2021 16:28 8,5 C 7,2 C 5,6 C 88 % 1013,0 hPa 0,0 l/m 0 min 0 min 7 W/m 3,2 km/h (1 Bft) 100,00 %
21.11.2021 16:30 8,5 C 7,2 C 5,6 C 88 % 1013,0 hPa 0,0 l/m 0 min 0 min 7 W/m 3,2 km/h (1 Bft) 100,00 %
21.11.2021 16:32 8,4 C 7,2 C 5,6 C 88 % 1012,9 hPa 0,0 l/m 0 min 0 min 6 W/m 0,0 km/h (0 Bft) 97,87 %
21.11.2021 16:34 8,4 C 7,2 C 5,6 C 88 % 1013,0 hPa 0,0 l/m 0 min 0 min 5 W/m 3,2 km/h (1 Bft) 97,87 %
21.11.2021 16:36 8,4 C 7,2 C 5,6 C 88 % 1013,0 hPa 0,0 l/m 0 min 0 min 5 W/m 3,2 km/h (1 Bft) 100,00 %
21.11.2021 16:38 8,4 C 6,7 C 5,6 C 88 % 1013,0 hPa 0,0 l/m 0 min 0 min 2 W/m 3,2 km/h (1 Bft) 100,00 %
21.11.2021 16:40 8,3 C 6,7 C 5,0 C 88 % 1013,1 hPa 0,0 l/m 0 min 0 min 0 W/m 3,2 km/h (1 Bft) 100,00 %
21.11.2021 16:42 8,3 C 6,7 C 5,0 C 88 % 1013,1 hPa 0,0 l/m 0 min 0 min 0 W/m 0,0 km/h (0 Bft) 97,87 %
21.11.2021 16:44 8,3 C 6,7 C 5,0 C 88 % 1013,1 hPa 0,0 l/m 0 min 0 min 0 W/m 3,2 km/h (1 Bft) 97,87 %
21.11.2021 16:46 8,2 C 6,7 C 5,0 C 88 % 1013,1 hPa 0,0 l/m 0 min 0 min 0 W/m 3,2 km/h (1 Bft) 97,87 %
21.11.2021 16:48 8,2 C 6,7 C 5,0 C 88 % 1013,1 hPa 0,0 l/m 0 min 0 min 0 W/m 6,4 km/h (2 Bft) 97,87 %
21.11.2021 16:50 8,1 C 6,7 C 5,0 C 88 % 1013,2 hPa 0,0 l/m 0 min 0 min 0 W/m 3,2 km/h (1 Bft) 97,87 %
21.11.2021 16:52 8,1 C 6,7 C 5,0 C 88 % 1013,1 hPa 0,0 l/m 0 min 0 min 0 W/m 3,2 km/h (1 Bft) 97,83 %
21.11.2021 16:54 8,0 C 6,7 C 5,0 C 88 % 1013,2 hPa 0,0 l/m 0 min 0 min 0 W/m 3,2 km/h (1 Bft) 95,74 %
21.11.2021 16:56 8,0 C 6,7 C 5,0 C 88 % 1013,2 hPa 0,0 l/m 0 min 0 min 0 W/m 9,7 km/h (2 Bft) 97,87 %
21.11.2021 16:58 7,9 C 6,7 C 5,0 C 88 % 1013,3 hPa 0,0 l/m 0 min 0 min 0 W/m 6,4 km/h (2 Bft) 97,87 %
21.11.2021 17:00 7,9 C 6,1 C 5,0 C 88 % 1013,2 hPa 0,0 l/m 0 min 0 min 0 W/m 3,2 km/h (1 Bft) 93,62 %
21.11.2021 17:02 7,9 C 6,1 C 5,0 C 88 % 1013,3 hPa 0,0 l/m 0 min 0 min 0 W/m 3,2 km/h (1 Bft) 95,74 %
21.11.2021 17:04 7,8 C 6,1 C 5,0 C 88 % 1013,3 hPa 0,0 l/m 0 min 0 min 0 W/m 3,2 km/h (1 Bft) 95,65 %
21.11.2021 17:06 7,8 C 6,1 C 5,0 C 88 % 1013,3 hPa 0,0 l/m 0 min 0 min 0 W/m 3,2 km/h (1 Bft) 95,74 %
21.11.2021 17:08 7,7 C 6,1 C 5,0 C 88 % 1013,4 hPa 0,0 l/m 0 min 0 min 0 W/m 3,2 km/h (1 Bft) 95,74 %
21.11.2021 17:10 7,7 C 6,1 C 4,4 C 88 % 1013,4 hPa 0,0 l/m 0 min 0 min 0 W/m 3,2 km/h (1 Bft) 95,74 %
21.11.2021 17:12 7,6 C 6,1 C 4,4 C 88 % 1013,4 hPa 0,0 l/m 0 min 0 min 0 W/m 3,2 km/h (1 Bft) 95,74 %
21.11.2021 17:14 7,6 C 6,1 C 4,4 C 88 % 1013,5 hPa 0,0 l/m 0 min 0 min 0 W/m 6,4 km/h (2 Bft) 95,74 %
21.11.2021 17:16 7,5 C 6,1 C 4,4 C 89 % 1013,4 hPa 0,0 l/m 0 min 0 min 0 W/m 3,2 km/h (1 Bft) 95,65 %
21.11.2021 17:18 7,5 C 6,1 C 4,4 C 89 % 1013,5 hPa 0,0 l/m 0 min 0 min 0 W/m 3,2 km/h (1 Bft) 95,74 %
21.11.2021 17:20 7,5 C 6,1 C 4,4 C 89 % 1013,5 hPa 0,0 l/m 0 min 0 min 0 W/m 0,0 km/h (0 Bft) 95,74 %
21.11.2021 17:22 7,5 C 6,1 C 4,4 C 89 % 1013,5 hPa 0,0 l/m 0 min 0 min 0 W/m 0,0 km/h (0 Bft) 97,87 %
21.11.2021 17:24 7,4 C 6,1 C 4,4 C 89 % 1013,6 hPa 0,0 l/m 0 min 0 min 0 W/m 3,2 km/h (1 Bft) 97,87 %
21.11.2021 17:26 7,4 C 6,1 C 4,4 C 89 % 1013,6 hPa 0,0 l/m 0 min 0 min 0 W/m 3,2 km/h (1 Bft) 97,83 %
21.11.2021 17:28 7,4 C 6,1 C 4,4 C 89 % 1013,5 hPa 0,0 l/m 0 min 0 min 0 W/m 9,7 km/h (2 Bft) 100,00 %
21.11.2021 17:30 7,4 C 6,7 C 5,0 C 89 % 1013,5 hPa 0,0 l/m 0 min 0 min 0 W/m 6,4 km/h (2 Bft) 97,87 %
21.11.2021 17:32 7,4 C 6,7 C 5,0 C 89 % 1013,5 hPa 0,0 l/m 0 min 0 min 0 W/m 9,7 km/h (2 Bft) 100,00 %
21.11.2021 17:34 7,4 C 6,7 C 5,0 C 90 % 1013,5 hPa 0,0 l/m 0 min 0 min 0 W/m 9,7 km/h (2 Bft) 97,87 %
21.11.2021 17:36 7,4 C 6,7 C 5,0 C 90 % 1013,5 hPa 0,0 l/m 0 min 0 min 0 W/m 6,4 km/h (2 Bft) 100,00 %
21.11.2021 17:38 7,4 C 6,7 C 5,0 C 90 % 1013,6 hPa 0,0 l/m 0 min 0 min 0 W/m 12,9 km/h (3 Bft) 100,00 %
21.11.2021 17:40 7,4 C 6,7 C 5,0 C 90 % 1013,6 hPa 0,0 l/m 0 min 0 min 0 W/m 9,7 km/h (2 Bft) 100,00 %
21.11.2021 17:42 7,3 C 6,7 C 5,0 C 90 % 1013,6 hPa 0,0 l/m 0 min 0 min 0 W/m 12,9 km/h (3 Bft) 97,87 %
21.11.2021 17:44 7,3 C 6,7 C 5,0 C 90 % 1013,6 hPa 0,0 l/m 0 min 0 min 0 W/m 3,2 km/h (1 Bft) 100,00 %
21.11.2021 17:46 7,3 C 6,1 C 5,0 C 90 % 1013,6 hPa 0,0 l/m 0 min 0 min 0 W/m 9,7 km/h (2 Bft) 100,00 %
21.11.2021 17:48 7,3 C 6,1 C 4,4 C 90 % 1013,7 hPa 0,0 l/m 0 min 0 min 0 W/m 6,4 km/h (2 Bft) 97,83 %
21.11.2021 17:50 7,3 C 6,1 C 4,4 C 90 % 1013,7 hPa 0,0 l/m 0 min 0 min 0 W/m 6,4 km/h (2 Bft) 97,87 %
21.11.2021 17:52 7,3 C 6,1 C 4,4 C 90 % 1013,7 hPa 0,0 l/m 0 min 0 min 0 W/m 6,4 km/h (2 Bft) 100,00 %
21.11.2021 17:54 7,2 C 6,1 C 4,4 C 90 % 1013,8 hPa 0,0 l/m 0 min 0 min 0 W/m 9,7 km/h (2 Bft) 100,00 %
21.11.2021 17:56 7,2 C 6,1 C 4,4 C 90 % 1013,8 hPa 0,0 l/m 0 min 0 min 0 W/m 6,4 km/h (2 Bft) 100,00 %
21.11.2021 17:58 7,2 C 6,1 C 4,4 C 90 % 1013,8 hPa 0,0 l/m 0 min 0 min 0 W/m 3,2 km/h (1 Bft) 100,00 %
21.11.2021 18:00 7,2 C 6,1 C 4,4 C 90 % 1013,8 hPa 0,0 l/m 0 min 0 min 0 W/m 0,0 km/h (0 Bft) 97,83 %
21.11.2021 18:02 7,1 C 6,1 C 4,4 C 91 % 1013,9 hPa 0,0 l/m 0 min 0 min 0 W/m 0,0 km/h (0 Bft) 100,00 %
21.11.2021 18:04 7,1 C 5,6 C 4,4 C 91 % 1013,9 hPa 0,0 l/m 0 min 0 min 0 W/m 0,0 km/h (0 Bft) 72,34 %
21.11.2021 18:06 7,1 C 5,6 C 4,4 C 91 % 1013,9 hPa 0,0 l/m 0 min 0 min 0 W/m 0,0 km/h (0 Bft) 82,61 %
21.11.2021 18:08 7,1 C 5,6 C 3,9 C 90 % 1014,0 hPa 0,0 l/m 0 min 0 min 0 W/m 0,0 km/h (0 Bft) 100,00 %
21.11.2021 18:10 7,0 C 5,6 C 3,9 C 90 % 1014,0 hPa 0,0 l/m 0 min 0 min 0 W/m 0,0 km/h (0 Bft) 97,87 %
21.11.2021 18:12 7,0 C 5,6 C 3,9 C 90 % 1014,0 hPa 0,0 l/m 0 min 0 min 0 W/m 3,2 km/h (1 Bft) 100,00 %
21.11.2021 18:14 7,0 C 5,6 C 3,9 C 90 % 1014,1 hPa 0,0 l/m 0 min 0 min 0 W/m 3,2 km/h (1 Bft) 97,87 %
21.11.2021 18:16 7,0 C 5,6 C 3,9 C 90 % 1014,1 hPa 0,0 l/m 0 min 0 min 0 W/m 0,0 km/h (0 Bft) 97,87 %
21.11.2021 18:18 6,9 C 5,6 C 3,9 C 90 % 1014,2 hPa 0,0 l/m 0 min 0 min 0 W/m 3,2 km/h (1 Bft) 97,87 %
21.11.2021 18:20 6,9 C 5,6 C 3,9 C 91 % 1014,3 hPa 0,0 l/m 0 min 0 min 0 W/m 3,2 km/h (1 Bft) 97,87 %
21.11.2021 18:22 6,9 C 5,6 C 4,4 C 91 % 1014,3 hPa 0,0 l/m 0 min 0 min 0 W/m 3,2 km/h (1 Bft) 95,74 %
21.11.2021 18:24 6,9 C 6,1 C 4,4 C 91 % 1014,3 hPa 0,0 l/m 0 min 0 min 0 W/m 3,2 km/h (1 Bft) 95,65 %
21.11.2021 18:26 6,9 C 6,1 C 4,4 C 91 % 1014,3 hPa 0,0 l/m 0 min 0 min 0 W/m 3,2 km/h (1 Bft) 93,62 %
21.11.2021 18:28 6,9 C 6,1 C 4,4 C 91 % 1014,3 hPa 0,0 l/m 0 min 0 min 0 W/m 3,2 km/h (1 Bft) 93,62 %
21.11.2021 18:30 6,9 C 6,1 C 4,4 C 91 % 1014,4 hPa 0,0 l/m 0 min 0 min 0 W/m 3,2 km/h (1 Bft) 97,87 %
21.11.2021 18:32 6,8 C 6,1 C 4,4 C 91 % 1014,4 hPa 0,0 l/m 0 min 0 min 0 W/m 3,2 km/h (1 Bft) 97,87 %
21.11.2021 18:34 6,8 C 6,1 C 4,4 C 91 % 1014,4 hPa 0,0 l/m 0 min 0 min 0 W/m 3,2 km/h (1 Bft) 97,87 %
21.11.2021 18:36 6,8 C 6,1 C 4,4 C 91 % 1014,4 hPa 0,0 l/m 0 min 0 min 0 W/m 0,0 km/h (0 Bft) 97,83 %
21.11.2021 18:38 6,8 C 6,1 C 4,4 C 91 % 1014,5 hPa 0,0 l/m 0 min 0 min 0 W/m 0,0 km/h (0 Bft) 97,87 %
21.11.2021 18:40 6,8 C 6,1 C 4,4 C 92 % 1014,5 hPa 0,0 l/m 0 min 0 min 0 W/m 0,0 km/h (0 Bft) 97,87 %
21.11.2021 18:42 6,8 C 6,1 C 4,4 C 92 % 1014,5 hPa 0,0 l/m 0 min 0 min 0 W/m 0,0 km/h (0 Bft) 97,87 %
21.11.2021 18:44 6,8 C 6,1 C 4,4 C 92 % 1014,5 hPa 0,0 l/m 0 min 0 min 0 W/m 0,0 km/h (0 Bft) 95,74 %
21.11.2021 18:46 6,8 C 5,6 C 4,4 C 92 % 1014,6 hPa 0,0 l/m 0 min 0 min 0 W/m 0,0 km/h (0 Bft) 95,74 %
21.11.2021 18:48 6,8 C 5,6 C 4,4 C 92 % 1014,6 hPa 0,0 l/m 0 min 0 min 0 W/m 0,0 km/h (0 Bft) 97,83 %
21.11.2021 18:50 6,7 C 5,6 C 4,4 C 92 % 1014,7 hPa 0,0 l/m 0 min 0 min 0 W/m 0,0 km/h (0 Bft) 95,74 %
21.11.2021 18:52 6,7 C 5,6 C 4,4 C 92 % 1014,7 hPa 0,0 l/m 0 min 0 min 0 W/m 0,0 km/h (0 Bft) 91,49 %
21.11.2021 18:54 6,7 C 5,6 C 4,4 C 92 % 1014,7 hPa 0,0 l/m 0 min 0 min 0 W/m 0,0 km/h (0 Bft) 93,62 %
21.11.2021 18:56 6,7 C 5,6 C 4,4 C 92 % 1014,8 hPa 0,0 l/m 0 min 0 min 0 W/m 0,0 km/h (0 Bft) 95,74 %
21.11.2021 18:58 6,7 C 5,6 C 4,4 C 92 % 1014,8 hPa 0,0 l/m 0 min 0 min 0 W/m 3,2 km/h (1 Bft) 95,74 %
21.11.2021 19:00 6,7 C 5,6 C 4,4 C 92 % 1014,8 hPa 0,0 l/m 0 min 0 min 0 W/m 3,2 km/h (1 Bft) 93,48 %
21.11.2021 19:02 6,6 C 5,6 C 3,9 C 92 % 1014,8 hPa 0,0 l/m 0 min 0 min 0 W/m 0,0 km/h (0 Bft) 89,36 %
21.11.2021 19:04 6,6 C 5,6 C 3,9 C 92 % 1014,8 hPa 0,0 l/m 0 min 0 min 0 W/m 0,0 km/h (0 Bft) 91,49 %
21.11.2021 19:06 6,6 C 5,6 C 3,9 C 92 % 1014,8 hPa 0,0 l/m 0 min 0 min 0 W/m 0,0 km/h (0 Bft) 93,62 %
21.11.2021 19:08 6,6 C 5,6 C 3,9 C 92 % 1014,8 hPa 0,0 l/m 0 min 0 min 0 W/m 0,0 km/h (0 Bft) 91,49 %
21.11.2021 19:10 6,6 C 5,0 C 3,9 C 92 % 1014,8 hPa 0,0 l/m 0 min 0 min 0 W/m 0,0 km/h (0 Bft) 95,65 %
21.11.2021 19:12 6,5 C 5,0 C 3,9 C 92 % 1014,9 hPa 0,0 l/m 0 min 0 min 0 W/m 3,2 km/h (1 Bft) 95,74 %
21.11.2021 19:14 6,5 C 5,0 C 3,9 C 92 % 1014,9 hPa 0,0 l/m 0 min 0 min 0 W/m 0,0 km/h (0 Bft) 95,74 %
21.11.2021 19:16 6,5 C 5,0 C 3,9 C 92 % 1014,9 hPa 0,0 l/m 0 min 0 min 0 W/m 3,2 km/h (1 Bft) 93,62 %
21.11.2021 19:18 6,5 C 5,0 C 3,9 C 92 % 1014,9 hPa 0,0 l/m 0 min 0 min 0 W/m 0,0 km/h (0 Bft) 91,49 %
21.11.2021 19:20 6,5 C 5,0 C 3,9 C 92 % 1014,9 hPa 0,0 l/m 0 min 0 min 0 W/m 3,2 km/h (1 Bft) 95,74 %
21.11.2021 19:22 6,4 C 5,0 C 3,9 C 92 % 1014,9 hPa 0,0 l/m 0 min 0 min 0 W/m 0,0 km/h (0 Bft) 97,83 %
21.11.2021 19:24 6,4 C 5,0 C 3,9 C 92 % 1015,0 hPa 0,0 l/m 0 min 0 min 0 W/m 3,2 km/h (1 Bft) 97,87 %
21.11.2021 19:26 6,4 C 5,0 C 3,9 C 92 % 1014,9 hPa 0,0 l/m 0 min 0 min 0 W/m 3,2 km/h (1 Bft) 93,62 %
21.11.2021 19:28 6,4 C 5,0 C 3,9 C 92 % 1015,0 hPa 0,0 l/m 0 min 0 min 0 W/m 3,2 km/h (1 Bft) 97,87 %
21.11.2021 19:30 6,4 C 5,0 C 3,9 C 92 % 1015,1 hPa 0,0 l/m 0 min 0 min 0 W/m 6,4 km/h (2 Bft) 97,87 %
21.11.2021 19:32 6,4 C 5,0 C 3,3 C 92 % 1015,1 hPa 0,0 l/m 0 min 0 min 0 W/m 3,2 km/h (1 Bft) 97,87 %
21.11.2021 19:34 6,3 C 5,0 C 3,3 C 92 % 1015,0 hPa 0,0 l/m 0 min 0 min 0 W/m 0,0 km/h (0 Bft) 97,83 %
21.11.2021 19:36 6,3 C 5,0 C 3,3 C 92 % 1015,1 hPa 0,0 l/m 0 min 0 min 0 W/m 0,0 km/h (0 Bft) 100,00 %
21.11.2021 19:38 6,3 C 4,4 C 3,3 C 92 % 1015,2 hPa 0,0 l/m 0 min 0 min 0 W/m 0,0 km/h (0 Bft) 100,00 %
21.11.2021 19:40 6,2 C 4,4 C 3,3 C 92 % 1015,1 hPa 0,0 l/m 0 min 0 min 0 W/m 0,0 km/h (0 Bft) 100,00 %
21.11.2021 19:42 6,2 C 4,4 C 3,3 C 92 % 1015,1 hPa 0,0 l/m 0 min 0 min 0 W/m 0,0 km/h (0 Bft) 100,00 %
21.11.2021 19:44 6,1 C 4,4 C 3,3 C 92 % 1015,1 hPa 0,0 l/m 0 min 0 min 0 W/m 0,0 km/h (0 Bft) 97,87 %
21.11.2021 19:46 6,1 C 4,4 C 2,8 C 92 % 1015,1 hPa 0,0 l/m 0 min 0 min 0 W/m 0,0 km/h (0 Bft) 100,00 %
21.11.2021 19:48 6,1 C 4,4 C 2,8 C 92 % 1015,2 hPa 0,0 l/m 0 min 0 min 0 W/m 0,0 km/h (0 Bft) 100,00 %
21.11.2021 19:50 6,0 C 4,4 C 2,8 C 92 % 1015,3 hPa 0,0 l/m 0 min 0 min 0 W/m 3,2 km/h (1 Bft) 100,00 %
21.11.2021 19:52 6,0 C 4,4 C 2,8 C 92 % 1015,3 hPa 0,0 l/m 0 min 0 min 0 W/m 3,2 km/h (1 Bft) 100,00 %
21.11.2021 19:54 6,0 C 4,4 C 2,8 C 92 % 1015,3 hPa 0,0 l/m 0 min 0 min 0 W/m 0,0 km/h (0 Bft) 100,00 %
21.11.2021 19:56 5,9 C 4,4 C 2,8 C 92 % 1015,3 hPa 0,0 l/m 0 min 0 min 0 W/m 0,0 km/h (0 Bft) 100,00 %
21.11.2021 19:58 5,9 C 4,4 C 2,8 C 92 % 1015,3 hPa 0,0 l/m 0 min 0 min 0 W/m 0,0 km/h (0 Bft) 100,00 %
21.11.2021 20:00 5,9 C 4,4 C 2,8 C 92 % 1015,4 hPa 0,0 l/m 0 min 0 min 0 W/m 0,0 km/h (0 Bft) 100,00 %
21.11.2021 20:02 5,8 C 3,9 C 2,8 C 92 % 1015,4 hPa 0,0 l/m 0 min 0 min 0 W/m 0,0 km/h (0 Bft) 100,00 %
21.11.2021 20:04 5,8 C 3,9 C 2,8 C 92 % 1015,5 hPa 0,0 l/m 0 min 0 min 0 W/m 0,0 km/h (0 Bft) 100,00 %
21.11.2021 20:06 5,7 C 3,9 C 2,8 C 91 % 1015,5 hPa 0,0 l/m 0 min 0 min 0 W/m 0,0 km/h (0 Bft) 97,87 %
21.11.2021 20:08 5,7 C 3,9 C 2,8 C 91 % 1015,5 hPa 0,0 l/m 0 min 0 min 0 W/m 3,2 km/h (1 Bft) 100,00 %
21.11.2021 20:10 5,6 C 3,9 C 2,8 C 92 % 1015,5 hPa 0,0 l/m 0 min 0 min 0 W/m 3,2 km/h (1 Bft) 100,00 %
21.11.2021 20:12 5,6 C 3,9 C 2,8 C 92 % 1015,6 hPa 0,0 l/m 0 min 0 min 0 W/m 3,2 km/h (1 Bft) 100,00 %
21.11.2021 20:14 5,5 C 3,9 C 2,8 C 92 % 1015,6 hPa 0,0 l/m 0 min 0 min 0 W/m 3,2 km/h (1 Bft) 100,00 %
21.11.2021 20:16 5,5 C 3,9 C 2,8 C 92 % 1015,6 hPa 0,0 l/m 0 min 0 min 0 W/m 3,2 km/h (1 Bft) 100,00 %
21.11.2021 20:18 5,5 C 3,9 C 2,8 C 92 % 1015,6 hPa 0,0 l/m 0 min 0 min 0 W/m 3,2 km/h (1 Bft) 100,00 %
21.11.2021 20:20 5,5 C 3,9 C 2,8 C 92 % 1015,6 hPa 0,0 l/m 0 min 0 min 0 W/m 3,2 km/h (1 Bft) 100,00 %
21.11.2021 20:22 5,4 C 3,9 C 2,8 C 92 % 1015,6 hPa 0,0 l/m 0 min 0 min 0 W/m 3,2 km/h (1 Bft) 100,00 %
21.11.2021 20:24 5,4 C 3,9 C 2,8 C 92 % 1015,6 hPa 0,0 l/m 0 min 0 min 0 W/m 0,0 km/h (0 Bft) 100,00 %
21.11.2021 20:26 5,4 C 3,9 C 2,8 C 92 % 1015,6 hPa 0,0 l/m 0 min 0 min 0 W/m 3,2 km/h (1 Bft) 97,87 %
21.11.2021 20:28 5,4 C 3,9 C 2,8 C 92 % 1015,6 hPa 0,0 l/m 0 min 0 min 0 W/m 3,2 km/h (1 Bft) 97,87 %
21.11.2021 20:30 5,3 C 3,9 C 2,8 C 92 % 1015,7 hPa 0,0 l/m 0 min 0 min 0 W/m 3,2 km/h (1 Bft) 100,00 %
21.11.2021 20:32 5,3 C 3,9 C 2,8 C 92 % 1015,8 hPa 0,0 l/m 0 min 0 min 0 W/m 0,0 km/h (0 Bft) 100,00 %
21.11.2021 20:34 5,3 C 3,9 C 2,8 C 92 % 1015,8 hPa 0,0 l/m 0 min 0 min 0 W/m 3,2 km/h (1 Bft) 97,87 %
21.11.2021 20:36 5,3 C 3,9 C 2,8 C 92 % 1015,8 hPa 0,0 l/m 0 min 0 min 0 W/m 0,0 km/h (0 Bft) 97,87 %
21.11.2021 20:38 5,3 C 3,9 C 2,8 C 92 % 1015,8 hPa 0,0 l/m 0 min 0 min 0 W/m 0,0 km/h (0 Bft) 97,87 %
21.11.2021 20:40 5,2 C 3,9 C 2,8 C 92 % 1015,8 hPa 0,0 l/m 0 min 0 min 0 W/m 0,0 km/h (0 Bft) 97,87 %
21.11.2021 20:42 5,2 C 3,9 C 2,2 C 92 % 1015,8 hPa 0,0 l/m 0 min 0 min 0 W/m 3,2 km/h (1 Bft) 95,74 %
21.11.2021 20:44 5,1 C 3,9 C 2,2 C 92 % 1015,9 hPa 0,0 l/m 0 min 0 min 0 W/m 0,0 km/h (0 Bft) 97,83 %
21.11.2021 20:46 5,1 C 3,9 C 2,2 C 92 % 1015,9 hPa 0,0 l/m 0 min 0 min 0 W/m 0,0 km/h (0 Bft) 97,87 %
21.11.2021 20:48 5,1 C 3,9 C 2,2 C 92 % 1015,9 hPa 0,0 l/m 0 min 0 min 0 W/m 0,0 km/h (0 Bft) 97,87 %
21.11.2021 20:50 5,0 C 3,9 C 2,2 C 92 % 1015,9 hPa 0,0 l/m 0 min 0 min 0 W/m 3,2 km/h (1 Bft) 95,74 %
21.11.2021 20:52 5,0 C 3,9 C 2,2 C 92 % 1016,0 hPa 0,0 l/m 0 min 0 min 0 W/m 6,4 km/h (2 Bft) 93,62 %
21.11.2021 20:54 5,0 C 3,9 C 2,2 C 92 % 1016,0 hPa 0,0 l/m 0 min 0 min 0 W/m 3,2 km/h (1 Bft) 97,83 %
21.11.2021 20:56 5,0 C 3,9 C 2,2 C 92 % 1016,1 hPa 0,0 l/m 0 min 0 min 0 W/m 3,2 km/h (1 Bft) 97,87 %
21.11.2021 20:58 5,0 C 3,9 C 2,2 C 92 % 1016,0 hPa 0,0 l/m 0 min 0 min 0 W/m 3,2 km/h (1 Bft) 97,87 %
21.11.2021 21:00 4,9 C 3,9 C 2,2 C 92 % 1016,1 hPa 0,0 l/m 0 min 0 min 0 W/m 3,2 km/h (1 Bft) 95,74 %
21.11.2021 21:02 4,9 C 3,9 C 2,2 C 92 % 1016,1 hPa 0,0 l/m 0 min 0 min 0 W/m 6,4 km/h (2 Bft) 97,87 %
21.11.2021 21:04 4,9 C 3,3 C 2,2 C 92 % 1016,2 hPa 0,0 l/m 0 min 0 min 0 W/m 0,0 km/h (0 Bft) 97,87 %
21.11.2021 21:06 4,9 C 3,3 C 2,2 C 92 % 1016,3 hPa 0,0 l/m 0 min 0 min 0 W/m 3,2 km/h (1 Bft) 97,83 %
21.11.2021 21:08 4,9 C 3,3 C 2,2 C 92 % 1016,2 hPa 0,0 l/m 0 min 0 min 0 W/m 0,0 km/h (0 Bft) 97,87 %
21.11.2021 21:10 4,8 C 3,3 C 2,2 C 93 % 1016,2 hPa 0,0 l/m 0 min 0 min 0 W/m 6,4 km/h (2 Bft) 97,87 %
21.11.2021 21:12 4,8 C 3,3 C 2,2 C 93 % 1016,3 hPa 0,0 l/m 0 min 0 min 0 W/m 3,2 km/h (1 Bft) 95,74 %
21.11.2021 21:14 4,8 C 3,3 C 2,2 C 93 % 1016,3 hPa 0,0 l/m 0 min 0 min 0 W/m 3,2 km/h (1 Bft) 97,87 %
21.11.2021 21:16 4,8 C 3,3 C 2,2 C 93 % 1016,3 hPa 0,0 l/m 0 min 0 min 0 W/m 9,7 km/h (2 Bft) 98,08 %
21.11.2021 21:18 4,7 C 3,3 C 2,2 C 93 % 1016,3 hPa 0,0 l/m 0 min 0 min 0 W/m 3,2 km/h (1 Bft) 97,87 %
21.11.2021 21:20 4,7 C 3,3 C 2,2 C 93 % 1016,4 hPa 0,0 l/m 0 min 0 min 0 W/m 3,2 km/h (1 Bft) 100,00 %
21.11.2021 21:22 4,6 C 3,3 C 2,2 C 92 % 1016,3 hPa 0,0 l/m 0 min 0 min 0 W/m 3,2 km/h (1 Bft) 98,00 %
21.11.2021 21:24 4,6 C 3,3 C 2,2 C 93 % 1016,3 hPa 0,0 l/m 0 min 0 min 0 W/m 3,2 km/h (1 Bft) 95,74 %
21.11.2021 21:26 4,6 C 3,3 C 2,2 C 93 % 1016,4 hPa 0,0 l/m 0 min 0 min 0 W/m 6,4 km/h (2 Bft) 97,87 %
21.11.2021 21:28 4,6 C 3,3 C 2,2 C 93 % 1016,4 hPa 0,0 l/m 0 min 0 min 0 W/m 3,2 km/h (1 Bft) 95,74 %
21.11.2021 21:30 4,6 C 3,3 C 2,2 C 93 % 1016,5 hPa 0,0 l/m 0 min 0 min 0 W/m 6,4 km/h (2 Bft) 97,67 %
21.11.2021 21:32 4,6 C 3,3 C 2,2 C 93 % 1016,5 hPa 0,0 l/m 0 min 0 min 0 W/m 3,2 km/h (1 Bft) 100,00 %
21.11.2021 21:34 4,5 C 3,3 C 2,2 C 93 % 1016,5 hPa 0,0 l/m 0 min 0 min 0 W/m 0,0 km/h (0 Bft) 97,87 %
21.11.2021 21:36 4,5 C 3,3 C 2,2 C 93 % 1016,4 hPa 0,0 l/m 0 min 0 min 0 W/m 6,4 km/h (2 Bft) 98,00 %
21.11.2021 21:38 4,5 C 3,3 C 2,2 C 93 % 1016,5 hPa 0,0 l/m 0 min 0 min 0 W/m 3,2 km/h (1 Bft) 95,74 %
21.11.2021 21:40 4,5 C 3,3 C 2,2 C 93 % 1016,5 hPa 0,0 l/m 0 min 0 min 0 W/m 6,4 km/h (2 Bft) 100,00 %
21.11.2021 21:42 4,5 C 3,3 C 2,2 C 93 % 1016,5 hPa 0,0 l/m 0 min 0 min 0 W/m 6,4 km/h (2 Bft) 96,36 %
21.11.2021 21:44 4,5 C 3,3 C 2,2 C 93 % 1016,5 hPa 0,0 l/m 0 min 0 min 0 W/m 6,4 km/h (2 Bft) 98,00 %
21.11.2021 21:46 4,4 C 3,3 C 2,2 C 93 % 1016,5 hPa 0,0 l/m 0 min 0 min 0 W/m 6,4 km/h (2 Bft) 97,14 %
21.11.2021 21:48 4,4 C 3,3 C 2,2 C 93 % 1016,5 hPa 0,0 l/m 0 min 0 min 0 W/m 9,7 km/h (2 Bft) 97,87 %
21.11.2021 21:50 4,4 C 3,3 C 2,2 C 93 % 1016,5 hPa 0,0 l/m 0 min 0 min 0 W/m 6,4 km/h (2 Bft) 96,43 %
21.11.2021 21:52 4,4 C 3,3 C 2,2 C 93 % 1016,5 hPa 0,0 l/m 0 min 0 min 0 W/m 6,4 km/h (2 Bft) 97,83 %
21.11.2021 21:54 4,4 C 3,3 C 2,2 C 93 % 1016,5 hPa 0,0 l/m 0 min 0 min 0 W/m 6,4 km/h (2 Bft) 98,00 %
21.11.2021 21:56 4,4 C 3,3 C 2,2 C 93 % 1016,5 hPa 0,0 l/m 0 min 0 min 0 W/m 9,7 km/h (2 Bft) 95,74 %
21.11.2021 21:58 4,4 C 3,3 C 2,2 C 93 % 1016,6 hPa 0,0 l/m 0 min 0 min 0 W/m 6,4 km/h (2 Bft) 100,00 %
21.11.2021 22:00 4,4 C 3,3 C 2,2 C 93 % 1016,6 hPa 0,0 l/m 0 min 0 min 0 W/m 3,2 km/h (1 Bft) 96,43 %
21.11.2021 22:02 4,4 C 3,3 C 2,2 C 93 % 1016,6 hPa 0,0 l/m 0 min 0 min 0 W/m 6,4 km/h (2 Bft) 97,87 %
21.11.2021 22:04 4,4 C 3,3 C 2,2 C 93 % 1016,6 hPa 0,0 l/m 0 min 0 min 0 W/m 3,2 km/h (1 Bft) 95,65 %
21.11.2021 22:06 4,4 C 3,3 C 2,2 C 94 % 1016,6 hPa 0,0 l/m 0 min 0 min 0 W/m 6,4 km/h (2 Bft) 96,00 %
21.11.2021 22:08 4,3 C 3,3 C 2,2 C 94 % 1016,6 hPa 0,0 l/m 0 min 0 min 0 W/m 6,4 km/h (2 Bft) 95,74 %
21.11.2021 22:10 4,3 C 3,3 C 2,2 C 94 % 1016,7 hPa 0,0 l/m 0 min 0 min 0 W/m 6,4 km/h (2 Bft) 97,37 %
21.11.2021 22:12 4,3 C 3,3 C 2,2 C 94 % 1016,7 hPa 0,0 l/m 0 min 0 min 0 W/m 6,4 km/h (2 Bft) 97,87 %
21.11.2021 22:14 4,3 C 3,3 C 2,2 C 94 % 1016,8 hPa 0,0 l/m 0 min 0 min 0 W/m 6,4 km/h (2 Bft) 97,87 %
21.11.2021 22:16 4,3 C 3,3 C 2,2 C 93 % 1016,7 hPa 0,0 l/m 0 min 0 min 0 W/m 6,4 km/h (2 Bft) 94,55 %
21.11.2021 22:18 4,3 C 3,3 C 2,2 C 94 % 1016,7 hPa 0,0 l/m 0 min 0 min 0 W/m 9,7 km/h (2 Bft) 94,74 %
21.11.2021 22:20 4,3 C 3,3 C 2,2 C 94 % 1016,8 hPa 0,0 l/m 0 min 0 min 0 W/m 9,7 km/h (2 Bft) 93,62 %
21.11.2021 22:22 4,3 C 3,3 C 2,2 C 94 % 1016,8 hPa 0,0 l/m 0 min 0 min 0 W/m 9,7 km/h (2 Bft) 95,74 %
21.11.2021 22:24 4,3 C 3,3 C 2,2 C 94 % 1016,8 hPa 0,0 l/m 0 min 0 min 0 W/m 9,7 km/h (2 Bft) 96,43 %
21.11.2021 22:26 4,3 C 3,3 C 2,2 C 94 % 1016,8 hPa 0,0 l/m 0 min 0 min 0 W/m 6,4 km/h (2 Bft) 95,65 %
21.11.2021 22:28 4,3 C 3,3 C 2,2 C 94 % 1016,8 hPa 0,0 l/m 0 min 0 min 0 W/m 6,4 km/h (2 Bft) 95,74 %
21.11.2021 22:30 4,2 C 3,3 C 2,2 C 94 % 1016,7 hPa 0,0 l/m 0 min 0 min 0 W/m 6,4 km/h (2 Bft) 94,74 %
21.11.2021 22:32 4,2 C 3,3 C 2,2 C 94 % 1016,8 hPa 0,0 l/m 0 min 0 min 0 W/m 3,2 km/h (1 Bft) 93,62 %
21.11.2021 22:34 4,2 C 3,3 C 2,2 C 94 % 1016,8 hPa 0,0 l/m 0 min 0 min 0 W/m 3,2 km/h (1 Bft) 95,74 %
21.11.2021 22:36 4,2 C 3,3 C 2,2 C 94 % 1016,8 hPa 0,0 l/m 0 min 0 min 0 W/m 3,2 km/h (1 Bft) 96,43 %
21.11.2021 22:38 4,1 C 3,3 C 2,2 C 94 % 1016,8 hPa 0,0 l/m 0 min 0 min 0 W/m 3,2 km/h (1 Bft) 97,83 %
21.11.2021 22:40 4,1 C 3,3 C 2,2 C 94 % 1016,8 hPa 0,0 l/m 0 min 0 min 0 W/m 3,2 km/h (1 Bft) 97,87 %
21.11.2021 22:42 4,1 C 3,3 C 2,2 C 94 % 1016,8 hPa 0,0 l/m 0 min 0 min 0 W/m 6,4 km/h (2 Bft) 97,87 %
21.11.2021 22:44 4,1 C 2,8 C 2,2 C 94 % 1016,8 hPa 0,0 l/m 0 min 0 min 0 W/m 3,2 km/h (1 Bft) 95,74 %
21.11.2021 22:46 4,1 C 3,3 C 2,2 C 94 % 1016,9 hPa 0,0 l/m 0 min 0 min 0 W/m 6,4 km/h (2 Bft) 97,37 %
21.11.2021 22:48 4,0 C 3,3 C 2,2 C 94 % 1016,9 hPa 0,0 l/m 0 min 0 min 0 W/m 6,4 km/h (2 Bft) 100,00 %
21.11.2021 22:50 4,0 C 2,8 C 1,7 C 94 % 1016,9 hPa 0,0 l/m 0 min 0 min 0 W/m 3,2 km/h (1 Bft) 100,00 %
21.11.2021 22:52 4,0 C 2,8 C 1,7 C 94 % 1016,9 hPa 0,0 l/m 0 min 0 min 0 W/m 3,2 km/h (1 Bft) 97,83 %
21.11.2021 22:54 4,0 C 2,8 C 1,7 C 94 % 1016,9 hPa 0,0 l/m 0 min 0 min 0 W/m 6,4 km/h (2 Bft) 100,00 %
21.11.2021 22:56 3,9 C 2,8 C 1,7 C 94 % 1017,0 hPa 0,0 l/m 0 min 0 min 0 W/m 6,4 km/h (2 Bft) 100,00 %
21.11.2021 22:58 3,9 C 2,8 C 1,7 C 94 % 1017,0 hPa 0,0 l/m 0 min 0 min 0 W/m 6,4 km/h (2 Bft) 100,00 %
21.11.2021 23:00 3,9 C 2,8 C 1,7 C 94 % 1017,0 hPa 0,0 l/m 0 min 0 min 0 W/m 9,7 km/h (2 Bft) 97,87 %
21.11.2021 23:02 3,9 C 2,8 C 1,7 C 94 % 1017,0 hPa 0,0 l/m 0 min 0 min 0 W/m 6,4 km/h (2 Bft) 100,00 %
21.11.2021 23:04 3,9 C 2,8 C 1,7 C 94 % 1017,0 hPa 0,0 l/m 0 min 0 min 0 W/m 6,4 km/h (2 Bft) 100,00 %
21.11.2021 23:06 3,9 C 2,8 C 1,7 C 94 % 1017,1 hPa 0,0 l/m 0 min 0 min 0 W/m 3,2 km/h (1 Bft) 100,00 %
21.11.2021 23:08 3,9 C 3,3 C 1,7 C 94 % 1017,1 hPa 0,0 l/m 0 min 0 min 0 W/m 9,7 km/h (2 Bft) 100,00 %
21.11.2021 23:10 3,9 C 2,8 C 1,7 C 94 % 1017,1 hPa 0,0 l/m 0 min 0 min 0 W/m 9,7 km/h (2 Bft) 95,74 %
21.11.2021 23:12 3,9 C 2,8 C 1,7 C 94 % 1017,1 hPa 0,0 l/m 0 min 0 min 0 W/m 3,2 km/h (1 Bft) 100,00 %
21.11.2021 23:14 3,9 C 2,8 C 1,7 C 94 % 1017,1 hPa 0,0 l/m 0 min 0 min 0 W/m 3,2 km/h (1 Bft) 97,83 %
21.11.2021 23:16 3,8 C 2,8 C 1,7 C 94 % 1017,1 hPa 0,0 l/m 0 min 0 min 0 W/m 0,0 km/h (0 Bft) 97,87 %
21.11.2021 23:18 3,8 C 2,8 C 1,7 C 94 % 1017,2 hPa 0,0 l/m 0 min 0 min 0 W/m 0,0 km/h (0 Bft) 97,37 %
21.11.2021 23:20 3,8 C 2,8 C 1,7 C 94 % 1017,2 hPa 0,0 l/m 0 min 0 min 0 W/m 3,2 km/h (1 Bft) 97,87 %
21.11.2021 23:22 3,8 C 2,8 C 1,7 C 94 % 1017,2 hPa 0,0 l/m 0 min 0 min 0 W/m 3,2 km/h (1 Bft) 95,74 %
21.11.2021 23:24 3,8 C 2,8 C 1,7 C 94 % 1017,2 hPa 0,0 l/m 0 min 0 min 0 W/m 6,4 km/h (2 Bft) 97,87 %
21.11.2021 23:26 3,8 C 2,8 C 1,7 C 94 % 1017,2 hPa 0,0 l/m 0 min 0 min 0 W/m 6,4 km/h (2 Bft) 98,08 %
21.11.2021 23:28 3,8 C 2,8 C 1,7 C 95 % 1017,2 hPa 0,0 l/m 0 min 0 min 0 W/m 6,4 km/h (2 Bft) 98,00 %
21.11.2021 23:30 3,7 C 2,8 C 1,7 C 94 % 1017,3 hPa 0,0 l/m 0 min 0 min 0 W/m 6,4 km/h (2 Bft) 97,87 %
21.11.2021 23:32 3,7 C 2,8 C 1,7 C 94 % 1017,3 hPa 0,0 l/m 0 min 0 min 0 W/m 6,4 km/h (2 Bft) 97,37 %
21.11.2021 23:34 3,7 C 2,8 C 1,7 C 94 % 1017,3 hPa 0,0 l/m 0 min 0 min 0 W/m 6,4 km/h (2 Bft) 97,87 %
21.11.2021 23:36 3,7 C 2,8 C 1,7 C 94 % 1017,3 hPa 0,0 l/m 0 min 0 min 0 W/m 0,0 km/h (0 Bft) 98,08 %
21.11.2021 23:38 3,7 C 2,8 C 1,7 C 94 % 1017,3 hPa 0,0 l/m 0 min 0 min 0 W/m 6,4 km/h (2 Bft) 95,74 %
21.11.2021 23:40 3,7 C 2,8 C 1,7 C 94 % 1017,4 hPa 0,0 l/m 0 min 0 min 0 W/m 9,7 km/h (2 Bft) 97,87 %
21.11.2021 23:42 3,6 C 2,8 C 1,7 C 94 % 1017,4 hPa 0,0 l/m 0 min 0 min 0 W/m 6,4 km/h (2 Bft) 97,87 %
21.11.2021 23:44 3,6 C 2,8 C 1,7 C 95 % 1017,4 hPa 0,0 l/m 0 min 0 min 0 W/m 9,7 km/h (2 Bft) 98,00 %
21.11.2021 23:46 3,6 C 2,8 C 1,7 C 95 % 1017,4 hPa 0,0 l/m 0 min 0 min 0 W/m 6,4 km/h (2 Bft) 98,00 %
21.11.2021 23:48 3,6 C 2,8 C 1,7 C 95 % 1017,5 hPa 0,0 l/m 0 min 0 min 0 W/m 6,4 km/h (2 Bft) 97,83 %
21.11.2021 23:50 3,6 C 2,8 C 1,7 C 95 % 1017,5 hPa 0,0 l/m 0 min 0 min 0 W/m 9,7 km/h (2 Bft) 100,00 %
21.11.2021 23:52 3,6 C 2,8 C 1,7 C 95 % 1017,6 hPa 0,0 l/m 0 min 0 min 0 W/m 3,2 km/h (1 Bft) 98,11 %
21.11.2021 23:54 3,5 C 2,8 C 1,7 C 95 % 1017,6 hPa 0,0 l/m 0 min 0 min 0 W/m 9,7 km/h (2 Bft) 100,00 %
21.11.2021 23:56 3,5 C 2,8 C 1,7 C 95 % 1017,6 hPa 0,0 l/m 0 min 0 min 0 W/m 6,4 km/h (2 Bft) 100,00 %
21.11.2021 23:58 3,5 C 2,8 C 1,7 C 95 % 1017,7 hPa 0,0 l/m 0 min 0 min 0 W/m 6,4 km/h (2 Bft) 97,87 %
_ Min-Zeit 23:54 22:44 22:50 15:10 07:42 - - - - 10:02 10:16
Minimum _ 3,5 C 2,8 C 1,7 C 86 % 1011,8 hPa - - - - 0,0 km/h (0 Bft) 37,50 %
_ Max-Zeit 14:52 14:34 12:04 10:20 23:58 02:40 14:34 02:20 14:44 00:14 00:48
Maximum _ 9,1 C 10,6 C 7,2 C 98 % 1017,7 hPa 0,2 l/m 2 min 2 min 206 W/m 19,3 km/h
S (3 Bft)
100,00 %
Durchschnitt _ 7,1 C 6,5 C 4,8 C 94 % 1013,9 hPa #0,8 l/m #10 min. #20 min. 64 W/m 6,9 km/h (2 Bft) 97,32 %
© 2021 W. Hausmann